Time,TemperatureF,DewpointF,PressureIn,WindDirection,WindDirectionDegrees,WindSpeedMPH,WindSpeedGustMPH,Humidity,HourlyPrecipIn,Conditions,Clouds,dailyrainin,SoftwareType,DateUTC
2013-06-15 00:00:00,61.8,59.5,29.88,WNW,287,6.0,7.0,92,0.00,,---,0.36,VWS V12.08,2013-06-15 04:00:00,
2013-06-15 00:01:00,61.8,59.5,29.88,WNW,287,5.0,7.0,92,0.00,,---,0.36,VWS V12.08,2013-06-15 04:01:00,
2013-06-15 00:06:00,61.8,59.5,29.88,WNW,287,5.0,6.0,92,0.00,,---,0.00,VWS V12.08,2013-06-15 04:06:00,
2013-06-15 00:11:00,61.8,59.5,29.88,WNW,287,4.0,7.0,92,0.00,,---,0.00,VWS V12.08,2013-06-15 04:11:00,
2013-06-15 00:16:00,61.8,59.5,29.88,WNW,287,4.0,6.0,92,0.00,,---,0.00,VWS V12.08,2013-06-15 04:16:00,
2013-06-15 00:21:00,61.8,59.5,29.88,WNW,287,3.0,3.0,92,0.00,,---,0.00,VWS V12.08,2013-06-15 04:21:00,
2013-06-15 00:26:00,61.8,59.5,29.88,WNW,287,4.0,4.0,92,0.00,,---,0.00,VWS V12.08,2013-06-15 04:26:00,
2013-06-15 00:27:00,61.8,59.5,29.88,WNW,287,3.0,5.0,92,0.00,,---,0.00,VWS V12.08,2013-06-15 04:27:00,
2013-06-15 00:31:00,61.8,59.5,29.88,WNW,287,3.0,3.0,92,0.00,,---,0.00,VWS V12.08,2013-06-15 04:31:00,
2013-06-15 00:32:00,61.8,59.5,29.88,WNW,287,2.0,5.0,92,0.00,,---,0.00,VWS V12.08,2013-06-15 04:32:00,
2013-06-15 00:36:00,61.8,59.5,29.88,WNW,287,2.0,5.0,92,0.00,,---,0.00,VWS V12.08,2013-06-15 04:36:00,
2013-06-15 00:37:00,61.8,59.5,29.88,WNW,287,3.0,6.0,92,0.00,,---,0.00,VWS V12.08,2013-06-15 04:37:00,
2013-06-15 00:41:00,61.8,59.5,29.88,WNW,287,4.0,4.0,92,0.00,,---,0.00,VWS V12.08,2013-06-15 04:41:00,
2013-06-15 00:42:00,61.8,59.5,29.88,WNW,287,3.0,5.0,92,0.00,,---,0.00,VWS V12.08,2013-06-15 04:42:00,
2013-06-15 00:46:00,61.8,59.5,29.88,West,277,2.0,9.0,92,0.00,,---,0.00,VWS V12.08,2013-06-15 04:46:00,
2013-06-15 00:47:00,61.8,59.5,29.88,West,277,4.0,9.0,92,0.00,,---,0.00,VWS V12.08,2013-06-15 04:47:00,
2013-06-15 00:51:00,61.8,59.5,29.88,West,277,4.0,5.0,92,0.00,,---,0.00,VWS V12.08,2013-06-15 04:51:00,
2013-06-15 00:52:00,61.7,59.4,29.88,West,277,4.0,5.0,92,0.00,,---,0.00,VWS V12.08,2013-06-15 04:52:00,
2013-06-15 00:56:00,61.7,59.4,29.88,West,277,3.0,5.0,92,0.00,,---,0.00,VWS V12.08,2013-06-15 04:56:00,
2013-06-15 00:57:00,61.7,59.4,29.88,West,277,6.0,6.0,92,0.00,,---,0.00,VWS V12.08,2013-06-15 04:57:00,
2013-06-15 01:02:00,61.7,59.4,29.88,West,277,4.0,4.0,92,0.00,,---,0.00,VWS V12.08,2013-06-15 05:02:00,
2013-06-15 01:03:00,61.7,59.4,29.88,West,277,4.0,4.0,92,0.00,,---,0.00,VWS V12.08,2013-06-15 05:03:00,
2013-06-15 01:07:00,61.6,59.3,29.88,West,277,2.0,6.0,92,0.00,,---,0.00,VWS V12.08,2013-06-15 05:07:00,
2013-06-15 01:08:00,61.6,59.3,29.88,West,277,3.0,6.0,92,0.00,,---,0.00,VWS V12.08,2013-06-15 05:08:00,
2013-06-15 01:12:00,61.6,59.6,29.88,West,277,7.0,7.0,93,0.00,,---,0.00,VWS V12.08,2013-06-15 05:12:00,
2013-06-15 01:13:00,61.6,59.6,29.88,West,277,4.0,7.0,93,0.00,,---,0.00,VWS V12.08,2013-06-15 05:13:00,
2013-06-15 01:17:00,61.7,59.7,29.88,West,277,4.0,7.0,93,0.00,,---,0.00,VWS V12.08,2013-06-15 05:17:00,
2013-06-15 01:18:00,61.7,59.7,29.88,West,277,2.0,7.0,93,0.00,,---,0.00,VWS V12.08,2013-06-15 05:18:00,
2013-06-15 01:22:00,61.7,59.7,29.88,West,277,3.0,5.0,93,0.00,,---,0.00,VWS V12.08,2013-06-15 05:22:00,
2013-06-15 01:23:00,61.7,59.7,29.88,West,277,3.0,6.0,93,0.00,,---,0.00,VWS V12.08,2013-06-15 05:23:00,
2013-06-15 01:27:00,61.7,59.7,29.88,West,277,4.0,6.0,93,0.00,,---,0.00,VWS V12.08,2013-06-15 05:27:00,
2013-06-15 01:28:00,61.8,59.8,29.88,West,277,2.0,6.0,93,0.00,,---,0.00,VWS V12.08,2013-06-15 05:28:00,
2013-06-15 01:32:00,61.8,59.8,29.88,West,272,4.0,7.0,93,0.00,,---,0.00,VWS V12.08,2013-06-15 05:32:00,
2013-06-15 01:33:00,61.8,59.8,29.88,West,272,4.0,7.0,93,0.00,,---,0.00,VWS V12.08,2013-06-15 05:33:00,
2013-06-15 01:34:00,61.8,59.8,29.88,West,267,4.0,7.0,93,0.00,,---,0.00,VWS V12.08,2013-06-15 05:34:00,
2013-06-15 01:37:00,61.8,59.8,29.88,West,263,3.0,9.0,93,0.00,,---,0.00,VWS V12.08,2013-06-15 05:37:00,
2013-06-15 01:38:00,61.8,59.8,29.88,West,263,3.0,9.0,93,0.00,,---,0.00,VWS V12.08,2013-06-15 05:38:00,
2013-06-15 01:39:00,61.8,59.8,29.88,West,265,4.0,9.0,93,0.00,,---,0.00,VWS V12.08,2013-06-15 05:39:00,
2013-06-15 01:42:00,61.9,59.9,29.89,West,262,5.0,7.0,93,0.00,,---,0.00,VWS V12.08,2013-06-15 05:42:00,
2013-06-15 01:43:00,61.9,59.9,29.89,West,262,4.0,7.0,93,0.00,,---,0.00,VWS V12.08,2013-06-15 05:43:00,
2013-06-15 01:44:00,61.9,59.9,29.89,West,262,4.0,7.0,93,0.00,,---,0.00,VWS V12.08,2013-06-15 05:44:00,
2013-06-15 01:47:00,61.9,59.9,29.89,West,262,7.0,7.0,93,0.00,,---,0.00,VWS V12.08,2013-06-15 05:47:00,
2013-06-15 01:48:00,61.9,59.9,29.89,West,262,5.0,7.0,93,0.00,,---,0.00,VWS V12.08,2013-06-15 05:48:00,
2013-06-15 01:49:00,61.9,59.9,29.89,West,261,7.0,7.0,93,0.00,,---,0.00,VWS V12.08,2013-06-15 05:49:00,
2013-06-15 01:53:00,61.8,59.8,29.89,West,264,5.0,8.0,93,0.00,,---,0.00,VWS V12.08,2013-06-15 05:53:00,
2013-06-15 01:54:00,61.8,59.8,29.89,West,271,8.0,9.0,93,0.00,,---,0.00,VWS V12.08,2013-06-15 05:54:00,
2013-06-15 01:58:00,61.8,59.8,29.89,West,269,5.0,10.0,93,0.00,,---,0.00,VWS V12.08,2013-06-15 05:58:00,
2013-06-15 01:59:00,61.8,59.8,29.89,WNW,296,5.0,10.0,93,0.00,,---,0.00,VWS V12.08,2013-06-15 05:59:00,
2013-06-15 02:03:00,61.8,59.8,29.89,WNW,284,6.0,6.0,93,0.00,,---,0.00,VWS V12.08,2013-06-15 06:03:00,
2013-06-15 02:04:00,61.8,59.8,29.89,WNW,282,6.0,8.0,93,0.00,,---,0.00,VWS V12.08,2013-06-15 06:04:00,
2013-06-15 02:08:00,61.7,59.7,29.88,WNW,282,3.0,8.0,93,0.00,,---,0.00,VWS V12.08,2013-06-15 06:08:00,
2013-06-15 02:09:00,61.8,59.8,29.89,West,281,7.0,8.0,93,0.00,,---,0.00,VWS V12.08,2013-06-15 06:09:00,
2013-06-15 02:10:00,61.7,59.7,29.89,West,279,3.0,9.0,93,0.00,,---,0.00,VWS V12.08,2013-06-15 06:10:00,
2013-06-15 02:13:00,61.7,59.7,29.89,West,279,4.0,6.0,93,0.00,,---,0.00,VWS V12.08,2013-06-15 06:13:00,
2013-06-15 02:14:00,61.7,59.7,29.89,West,279,3.0,6.0,93,0.00,,---,0.00,VWS V12.08,2013-06-15 06:14:00,
2013-06-15 02:15:00,61.6,59.6,29.89,West,279,5.0,6.0,93,0.00,,---,0.00,VWS V12.08,2013-06-15 06:15:00,
2013-06-15 02:18:00,61.6,59.6,29.89,West,279,3.0,7.0,93,0.00,,---,0.00,VWS V12.08,2013-06-15 06:18:00,
2013-06-15 02:19:00,61.5,59.5,29.89,West,279,4.0,7.0,93,0.00,,---,0.00,VWS V12.08,2013-06-15 06:19:00,
2013-06-15 02:20:00,61.5,59.5,29.89,West,279,3.0,7.0,93,0.00,,---,0.00,VWS V12.08,2013-06-15 06:20:00,
2013-06-15 02:24:00,61.4,59.4,29.89,West,279,4.0,6.0,93,0.00,,---,0.00,VWS V12.08,2013-06-15 06:24:00,
2013-06-15 02:25:00,61.4,59.4,29.89,West,279,6.0,6.0,93,0.00,,---,0.00,VWS V12.08,2013-06-15 06:25:00,
2013-06-15 02:29:00,61.3,59.3,29.89,West,279,4.0,6.0,93,0.00,,---,0.00,VWS V12.08,2013-06-15 06:29:00,
2013-06-15 02:30:00,61.3,59.3,29.89,West,279,6.0,7.0,93,0.00,,---,0.00,VWS V12.08,2013-06-15 06:30:00,
2013-06-15 02:34:00,61.2,59.2,29.89,West,275,4.0,6.0,93,0.00,,---,0.00,VWS V12.08,2013-06-15 06:34:00,
2013-06-15 02:35:00,61.2,59.2,29.89,West,275,7.0,7.0,93,0.00,,---,0.00,VWS V12.08,2013-06-15 06:35:00,
2013-06-15 02:39:00,61.1,59.1,29.89,West,274,4.0,7.0,93,0.00,,---,0.00,VWS V12.08,2013-06-15 06:39:00,
2013-06-15 02:40:00,61.1,59.1,29.89,West,274,4.0,7.0,93,0.00,,---,0.00,VWS V12.08,2013-06-15 06:40:00,
2013-06-15 02:41:00,61.1,59.1,29.89,West,274,4.0,4.0,93,0.00,,---,0.00,VWS V12.08,2013-06-15 06:41:00,
2013-06-15 02:44:00,61.0,59.0,29.89,West,274,3.0,6.0,93,0.00,,---,0.00,VWS V12.08,2013-06-15 06:44:00,
2013-06-15 02:45:00,61.0,59.0,29.89,West,274,5.0,6.0,93,0.00,,---,0.00,VWS V12.08,2013-06-15 06:45:00,
2013-06-15 02:46:00,60.9,58.9,29.89,West,274,4.0,6.0,93,0.00,,---,0.00,VWS V12.08,2013-06-15 06:46:00,
2013-06-15 02:49:00,60.9,58.9,29.89,West,274,3.0,6.0,93,0.00,,---,0.00,VWS V12.08,2013-06-15 06:49:00,
2013-06-15 02:50:00,60.9,58.9,29.89,West,274,6.0,6.0,93,0.00,,---,0.00,VWS V12.08,2013-06-15 06:50:00,
2013-06-15 02:51:00,60.9,58.9,29.89,West,274,4.0,5.0,93,0.00,,---,0.00,VWS V12.08,2013-06-15 06:51:00,
2013-06-15 02:54:00,60.9,58.9,29.89,West,274,5.0,6.0,93,0.00,,---,0.00,VWS V12.08,2013-06-15 06:54:00,
2013-06-15 02:55:00,60.9,58.9,29.89,West,274,4.0,6.0,93,0.00,,---,0.00,VWS V12.08,2013-06-15 06:55:00,
2013-06-15 02:56:00,60.9,58.9,29.89,West,274,5.0,6.0,93,0.00,,---,0.00,VWS V12.08,2013-06-15 06:56:00,
2013-06-15 02:59:00,60.8,58.8,29.89,West,274,4.0,6.0,93,0.00,,---,0.00,VWS V12.08,2013-06-15 06:59:00,
2013-06-15 03:00:00,60.8,58.8,29.89,West,274,2.0,6.0,93,0.00,,---,0.00,VWS V12.08,2013-06-15 07:00:00,
2013-06-15 03:01:00,60.8,58.8,29.89,West,274,4.0,5.0,93,0.00,,---,0.00,VWS V12.08,2013-06-15 07:01:00,
2013-06-15 03:04:00,60.8,58.8,29.88,West,274,5.0,5.0,93,0.00,,---,0.00,VWS V12.08,2013-06-15 07:04:00,
2013-06-15 03:05:00,60.8,58.8,29.88,West,274,4.0,7.0,93,0.00,,---,0.00,VWS V12.08,2013-06-15 07:05:00,
2013-06-15 03:06:00,60.8,58.8,29.88,West,274,4.0,7.0,93,0.00,,---,0.00,VWS V12.08,2013-06-15 07:06:00,
2013-06-15 03:10:00,60.7,58.7,29.88,West,280,5.0,7.0,93,0.00,,---,0.00,VWS V12.08,2013-06-15 07:10:00,
2013-06-15 03:11:00,60.7,58.7,29.88,West,281,5.0,7.0,93,0.00,,---,0.00,VWS V12.08,2013-06-15 07:11:00,
2013-06-15 03:12:00,60.7,58.7,29.88,West,281,6.0,7.0,93,0.00,,---,0.00,VWS V12.08,2013-06-15 07:12:00,
2013-06-15 03:15:00,60.8,58.8,29.89,WNW,288,6.0,7.0,93,0.00,,---,0.00,VWS V12.08,2013-06-15 07:15:00,
2013-06-15 03:16:00,60.8,58.8,29.89,WNW,288,4.0,7.0,93,0.00,,---,0.00,VWS V12.08,2013-06-15 07:16:00,
2013-06-15 03:17:00,60.8,58.8,29.88,WNW,288,5.0,7.0,93,0.00,,---,0.00,VWS V12.08,2013-06-15 07:17:00,
2013-06-15 03:20:00,60.8,58.8,29.89,WNW,288,4.0,7.0,93,0.00,,---,0.00,VWS V12.08,2013-06-15 07:20:00,
2013-06-15 03:21:00,60.8,58.8,29.89,WNW,288,4.0,7.0,93,0.00,,---,0.00,VWS V12.08,2013-06-15 07:21:00,
2013-06-15 03:22:00,60.8,58.8,29.89,WNW,288,6.0,7.0,93,0.00,,---,0.00,VWS V12.08,2013-06-15 07:22:00,
2013-06-15 03:25:00,60.8,58.8,29.89,WNW,290,4.0,7.0,93,0.00,,---,0.00,VWS V12.08,2013-06-15 07:25:00,
2013-06-15 03:26:00,60.8,58.8,29.89,WNW,290,4.0,7.0,93,0.00,,---,0.00,VWS V12.08,2013-06-15 07:26:00,
2013-06-15 03:27:00,60.8,58.8,29.89,WNW,290,3.0,7.0,93,0.00,,---,0.00,VWS V12.08,2013-06-15 07:27:00,
2013-06-15 03:30:00,60.8,58.8,29.89,WNW,291,4.0,7.0,93,0.00,,---,0.00,VWS V12.08,2013-06-15 07:30:00,
2013-06-15 03:31:00,60.9,58.9,29.89,WNW,292,6.0,7.0,93,0.00,,---,0.00,VWS V12.08,2013-06-15 07:31:00,
2013-06-15 03:32:00,60.9,58.9,29.89,WNW,290,7.0,7.0,93,0.00,,---,0.00,VWS V12.08,2013-06-15 07:32:00,
2013-06-15 03:35:00,60.9,58.9,29.89,WNW,290,6.0,7.0,93,0.00,,---,0.00,VWS V12.08,2013-06-15 07:35:00,
2013-06-15 03:36:00,60.9,58.9,29.89,WNW,290,6.0,7.0,93,0.00,,---,0.00,VWS V12.08,2013-06-15 07:36:00,
2013-06-15 03:37:00,60.8,58.8,29.89,NW,306,4.0,7.0,93,0.00,,---,0.00,VWS V12.08,2013-06-15 07:37:00,
2013-06-15 03:40:00,60.8,58.8,29.89,NW,306,5.0,7.0,93,0.00,,---,0.00,VWS V12.08,2013-06-15 07:40:00,
2013-06-15 03:41:00,60.8,58.8,29.89,NW,306,4.0,4.0,93,0.00,,---,0.00,VWS V12.08,2013-06-15 07:41:00,
2013-06-15 03:42:00,60.8,58.8,29.89,NW,306,4.0,5.0,93,0.00,,---,0.00,VWS V12.08,2013-06-15 07:42:00,
2013-06-15 03:46:00,60.8,59.1,29.89,WNW,302,4.0,7.0,94,0.00,,---,0.00,VWS V12.08,2013-06-15 07:46:00,
2013-06-15 03:47:00,60.8,59.1,29.89,WNW,302,5.0,7.0,94,0.00,,---,0.00,VWS V12.08,2013-06-15 07:47:00,
2013-06-15 03:51:00,60.8,58.8,29.89,WNW,302,3.0,3.0,93,0.00,,---,0.00,VWS V12.08,2013-06-15 07:51:00,
2013-06-15 03:52:00,60.8,58.8,29.89,WNW,302,5.0,6.0,93,0.00,,---,0.00,VWS V12.08,2013-06-15 07:52:00,
2013-06-15 03:56:00,60.7,58.7,29.90,WNW,302,4.0,6.0,93,0.00,,---,0.00,VWS V12.08,2013-06-15 07:56:00,
2013-06-15 03:57:00,60.7,58.7,29.89,WNW,302,4.0,6.0,93,0.00,,---,0.00,VWS V12.08,2013-06-15 07:57:00,
2013-06-15 04:01:00,60.7,59.0,29.89,WNW,302,4.0,5.0,94,0.00,,---,0.00,VWS V12.08,2013-06-15 08:01:00,
2013-06-15 04:02:00,60.7,59.0,29.89,WNW,302,4.0,5.0,94,0.00,,---,0.00,VWS V12.08,2013-06-15 08:02:00,
2013-06-15 04:03:00,60.7,59.0,29.89,WNW,302,4.0,5.0,94,0.00,,---,0.00,VWS V12.08,2013-06-15 08:03:00,
2013-06-15 04:06:00,60.8,59.1,29.89,WNW,302,5.0,6.0,94,0.00,,---,0.00,VWS V12.08,2013-06-15 08:06:00,
2013-06-15 04:07:00,60.8,59.1,29.89,WNW,302,3.0,6.0,94,0.00,,---,0.00,VWS V12.08,2013-06-15 08:07:00,
2013-06-15 04:08:00,60.8,59.1,29.89,WNW,302,2.0,6.0,94,0.00,,---,0.00,VWS V12.08,2013-06-15 08:08:00,
2013-06-15 04:11:00,60.7,58.7,29.89,WNW,302,3.0,3.0,93,0.00,,---,0.00,VWS V12.08,2013-06-15 08:11:00,
2013-06-15 04:12:00,60.7,58.7,29.89,WNW,302,2.0,3.0,93,0.00,,---,0.00,VWS V12.08,2013-06-15 08:12:00,
2013-06-15 04:13:00,60.7,58.7,29.89,WNW,302,2.0,3.0,93,0.00,,---,0.00,VWS V12.08,2013-06-15 08:13:00,
2013-06-15 04:16:00,60.6,58.6,29.89,WNW,302,2.0,3.0,93,0.00,,---,0.00,VWS V12.08,2013-06-15 08:16:00,
2013-06-15 04:17:00,60.5,58.5,29.89,WNW,302,4.0,4.0,93,0.00,,---,0.00,VWS V12.08,2013-06-15 08:17:00,
2013-06-15 04:18:00,60.5,58.5,29.89,WNW,302,2.0,4.0,93,0.00,,---,0.00,VWS V12.08,2013-06-15 08:18:00,
2013-06-15 04:21:00,60.4,58.4,29.89,WNW,302,1.0,1.0,93,0.00,,---,0.00,VWS V12.08,2013-06-15 08:21:00,
2013-06-15 04:22:00,60.4,58.4,29.89,WNW,302,2.0,2.0,93,0.00,,---,0.00,VWS V12.08,2013-06-15 08:22:00,
2013-06-15 04:23:00,60.3,58.3,29.89,WNW,302,3.0,3.0,93,0.00,,---,0.00,VWS V12.08,2013-06-15 08:23:00,
2013-06-15 04:26:00,60.2,58.2,29.89,WNW,302,1.0,3.0,93,0.00,,---,0.00,VWS V12.08,2013-06-15 08:26:00,
2013-06-15 04:27:00,60.2,58.2,29.89,WNW,302,1.0,3.0,93,0.00,,---,0.00,VWS V12.08,2013-06-15 08:27:00,
2013-06-15 04:28:00,60.1,58.1,29.89,WNW,302,1.0,3.0,93,0.00,,---,0.00,VWS V12.08,2013-06-15 08:28:00,
2013-06-15 04:29:00,60.1,58.1,29.89,WNW,302,3.0,3.0,93,0.00,,---,0.00,VWS V12.08,2013-06-15 08:29:00,
2013-06-15 04:32:00,60.0,58.0,29.89,WNW,302,2.0,4.0,93,0.00,,---,0.00,VWS V12.08,2013-06-15 08:32:00,
2013-06-15 04:34:00,60.0,58.0,29.89,WNW,302,2.0,4.0,93,0.00,,---,0.00,VWS V12.08,2013-06-15 08:34:00,
2013-06-15 04:37:00,60.0,58.3,29.89,WNW,302,3.0,4.0,94,0.00,,---,0.00,VWS V12.08,2013-06-15 08:37:00,
2013-06-15 04:39:00,60.0,58.3,29.89,WNW,302,0.0,4.0,94,0.00,,---,0.00,VWS V12.08,2013-06-15 08:39:00,
2013-06-15 04:42:00,59.9,58.2,29.89,WNW,302,1.0,3.0,94,0.00,,---,0.00,VWS V12.08,2013-06-15 08:42:00,
2013-06-15 04:44:00,59.9,58.2,29.89,WNW,302,2.0,3.0,94,0.00,,---,0.00,VWS V12.08,2013-06-15 08:44:00,
2013-06-15 04:47:00,59.8,57.8,29.89,WNW,302,0.0,3.0,93,0.00,,---,0.00,VWS V12.08,2013-06-15 08:47:00,
2013-06-15 04:49:00,59.7,57.7,29.90,WNW,302,1.0,3.0,93,0.00,,---,0.00,VWS V12.08,2013-06-15 08:49:00,
2013-06-15 04:52:00,59.7,57.7,29.90,WNW,302,3.0,3.0,93,0.00,,---,0.00,VWS V12.08,2013-06-15 08:52:00,
2013-06-15 04:53:00,59.6,57.6,29.90,WNW,302,2.0,3.0,93,0.00,,---,0.00,VWS V12.08,2013-06-15 08:53:00,
2013-06-15 04:54:00,59.6,57.6,29.90,WNW,302,2.0,3.0,93,0.00,,---,0.00,VWS V12.08,2013-06-15 08:54:00,
2013-06-15 04:57:00,59.5,57.5,29.90,WNW,302,2.0,4.0,93,0.00,,---,0.00,VWS V12.08,2013-06-15 08:57:00,
2013-06-15 04:58:00,59.5,57.5,29.90,WNW,302,3.0,4.0,93,0.00,,---,0.00,VWS V12.08,2013-06-15 08:58:00,
2013-06-15 04:59:00,59.5,57.5,29.90,WNW,302,2.0,4.0,93,0.00,,---,0.00,VWS V12.08,2013-06-15 08:59:00,
2013-06-15 05:02:00,59.4,57.4,29.90,WNW,302,3.0,4.0,93,0.00,,---,0.00,VWS V12.08,2013-06-15 09:02:00,
2013-06-15 05:03:00,59.4,57.4,29.90,WNW,302,2.0,4.0,93,0.00,,---,0.00,VWS V12.08,2013-06-15 09:03:00,
2013-06-15 05:04:00,59.4,57.4,29.90,WNW,302,2.0,4.0,93,0.00,,---,0.00,VWS V12.08,2013-06-15 09:04:00,
2013-06-15 05:05:00,59.4,57.4,29.90,WNW,302,3.0,4.0,93,0.00,,---,0.00,VWS V12.08,2013-06-15 09:05:00,
2013-06-15 05:08:00,59.3,57.3,29.90,WNW,302,2.0,4.0,93,0.00,,---,0.00,VWS V12.08,2013-06-15 09:08:00,
2013-06-15 05:10:00,59.3,57.3,29.90,WNW,302,0.0,4.0,93,0.00,,---,0.00,VWS V12.08,2013-06-15 09:10:00,
2013-06-15 05:13:00,59.2,57.5,29.90,WNW,302,1.0,4.0,94,0.00,,---,0.00,VWS V12.08,2013-06-15 09:13:00,
2013-06-15 05:14:00,59.2,57.5,29.90,WNW,302,2.0,4.0,94,0.00,,---,0.00,VWS V12.08,2013-06-15 09:14:00,
2013-06-15 05:15:00,59.2,57.5,29.90,WNW,302,1.0,4.0,94,0.00,,---,0.00,VWS V12.08,2013-06-15 09:15:00,
2013-06-15 05:18:00,59.2,57.5,29.90,WNW,302,2.0,4.0,94,0.00,,---,0.00,VWS V12.08,2013-06-15 09:18:00,
2013-06-15 05:19:00,59.2,57.5,29.90,WNW,302,2.0,4.0,94,0.00,,---,0.00,VWS V12.08,2013-06-15 09:19:00,
2013-06-15 05:20:00,59.2,57.2,29.91,WNW,302,3.0,4.0,93,0.00,,---,0.00,VWS V12.08,2013-06-15 09:20:00,
2013-06-15 05:23:00,59.1,57.1,29.90,WNW,302,2.0,2.0,93,0.00,,---,0.00,VWS V12.08,2013-06-15 09:23:00,
2013-06-15 05:24:00,59.1,57.1,29.91,WNW,302,0.0,2.0,93,0.00,,---,0.00,VWS V12.08,2013-06-15 09:24:00,
2013-06-15 05:25:00,59.1,57.1,29.90,WNW,302,1.0,2.0,93,0.00,,---,0.00,VWS V12.08,2013-06-15 09:25:00,
2013-06-15 05:28:00,59.0,57.0,29.91,WNW,302,2.0,2.0,93,0.00,,---,0.00,VWS V12.08,2013-06-15 09:28:00,
2013-06-15 05:29:00,59.0,57.0,29.91,WNW,302,2.0,3.0,93,0.00,,---,0.00,VWS V12.08,2013-06-15 09:29:00,
2013-06-15 05:30:00,59.0,57.0,29.91,WNW,302,2.0,3.0,93,0.00,,---,0.00,VWS V12.08,2013-06-15 09:30:00,
2013-06-15 05:33:00,59.0,57.3,29.91,WNW,302,2.0,3.0,94,0.00,,---,0.00,VWS V12.08,2013-06-15 09:33:00,
2013-06-15 05:34:00,59.0,57.3,29.91,WNW,302,2.0,4.0,94,0.00,,---,0.00,VWS V12.08,2013-06-15 09:34:00,
2013-06-15 05:35:00,59.0,57.3,29.91,WNW,302,3.0,4.0,94,0.00,,---,0.00,VWS V12.08,2013-06-15 09:35:00,
2013-06-15 05:36:00,59.0,57.3,29.91,WNW,302,2.0,4.0,94,0.00,,---,0.00,VWS V12.08,2013-06-15 09:36:00,
2013-06-15 05:38:00,59.0,57.3,29.91,WNW,302,3.0,4.0,94,0.00,,---,0.00,VWS V12.08,2013-06-15 09:38:00,
2013-06-15 05:39:00,59.0,57.3,29.91,WNW,302,3.0,4.0,94,0.00,,---,0.00,VWS V12.08,2013-06-15 09:39:00,
2013-06-15 05:40:00,59.0,57.3,29.91,WNW,302,2.0,4.0,94,0.00,,---,0.00,VWS V12.08,2013-06-15 09:40:00,
2013-06-15 05:41:00,59.0,57.3,29.91,WNW,302,1.0,4.0,94,0.00,,---,0.00,VWS V12.08,2013-06-15 09:41:00,
2013-06-15 05:43:00,59.0,57.3,29.91,WNW,302,3.0,3.0,94,0.00,,---,0.00,VWS V12.08,2013-06-15 09:43:00,
2013-06-15 05:44:00,59.0,57.3,29.91,WNW,302,3.0,3.0,94,0.00,,---,0.00,VWS V12.08,2013-06-15 09:44:00,
2013-06-15 05:45:00,59.1,57.4,29.91,WNW,302,4.0,4.0,94,0.00,,---,0.00,VWS V12.08,2013-06-15 09:45:00,
2013-06-15 05:46:00,59.1,57.4,29.91,WNW,302,4.0,5.0,94,0.00,,---,0.00,VWS V12.08,2013-06-15 09:46:00,
2013-06-15 05:48:00,59.2,57.5,29.91,WNW,302,5.0,6.0,94,0.00,,---,0.00,VWS V12.08,2013-06-15 09:48:00,
2013-06-15 05:49:00,59.2,57.5,29.91,WNW,302,6.0,6.0,94,0.00,,---,0.00,VWS V12.08,2013-06-15 09:49:00,
2013-06-15 05:50:00,59.3,57.6,29.91,WNW,302,4.0,6.0,94,0.00,,---,0.00,VWS V12.08,2013-06-15 09:50:00,
2013-06-15 05:51:00,59.3,57.6,29.91,WNW,302,3.0,5.0,94,0.00,,---,0.00,VWS V12.08,2013-06-15 09:51:00,
2013-06-15 05:53:00,59.5,57.8,29.91,WNW,302,3.0,5.0,94,0.00,,---,0.00,VWS V12.08,2013-06-15 09:53:00,
2013-06-15 05:54:00,59.5,57.8,29.91,WNW,302,4.0,5.0,94,0.00,,---,0.00,VWS V12.08,2013-06-15 09:54:00,
2013-06-15 05:55:00,59.6,57.9,29.91,WNW,302,3.0,5.0,94,0.00,,---,0.00,VWS V12.08,2013-06-15 09:55:00,
2013-06-15 05:56:00,59.6,57.9,29.91,WNW,302,4.0,6.0,94,0.00,,---,0.00,VWS V12.08,2013-06-15 09:56:00,
2013-06-15 05:58:00,59.7,58.0,29.91,WNW,302,5.0,6.0,94,0.00,,---,0.00,VWS V12.08,2013-06-15 09:58:00,
2013-06-15 05:59:00,59.8,58.1,29.92,WNW,302,3.0,6.0,94,0.00,,---,0.00,VWS V12.08,2013-06-15 09:59:00,
2013-06-15 06:01:00,59.8,58.1,29.92,WNW,302,3.0,6.0,94,0.00,,---,0.00,VWS V12.08,2013-06-15 10:01:00,
2013-06-15 06:03:00,59.9,58.2,29.92,WNW,302,5.0,5.0,94,0.00,,---,0.00,VWS V12.08,2013-06-15 10:03:00,
2013-06-15 06:04:00,59.9,58.2,29.92,WNW,302,4.0,5.0,94,0.00,,---,0.00,VWS V12.08,2013-06-15 10:04:00,
2013-06-15 06:06:00,59.9,58.2,29.92,WNW,302,3.0,5.0,94,0.00,,---,0.00,VWS V12.08,2013-06-15 10:06:00,
2013-06-15 06:09:00,60.0,58.3,29.92,WNW,302,5.0,5.0,94,0.00,,---,0.00,VWS V12.08,2013-06-15 10:09:00,
2013-06-15 06:11:00,60.0,58.3,29.92,WNW,302,3.0,3.0,94,0.00,,---,0.00,VWS V12.08,2013-06-15 10:11:00,
2013-06-15 06:14:00,60.1,58.4,29.92,WNW,302,6.0,6.0,94,0.00,,---,0.00,VWS V12.08,2013-06-15 10:14:00,
2013-06-15 06:15:00,60.1,58.4,29.92,WNW,302,4.0,6.0,94,0.00,,---,0.00,VWS V12.08,2013-06-15 10:15:00,
2013-06-15 06:16:00,60.1,58.4,29.93,WNW,302,4.0,6.0,94,0.00,,---,0.00,VWS V12.08,2013-06-15 10:16:00,
2013-06-15 06:17:00,60.2,58.5,29.93,WNW,302,2.0,6.0,94,0.00,,---,0.00,VWS V12.08,2013-06-15 10:17:00,
2013-06-15 06:19:00,60.2,58.5,29.93,WNW,302,4.0,6.0,94,0.00,,---,0.00,VWS V12.08,2013-06-15 10:19:00,
2013-06-15 06:20:00,60.2,58.5,29.93,WNW,302,4.0,6.0,94,0.00,,---,0.00,VWS V12.08,2013-06-15 10:20:00,
2013-06-15 06:21:00,60.3,58.6,29.93,WNW,302,4.0,4.0,94,0.00,,---,0.00,VWS V12.08,2013-06-15 10:21:00,
2013-06-15 06:22:00,60.3,58.6,29.93,WNW,302,2.0,5.0,94,0.00,,---,0.00,VWS V12.08,2013-06-15 10:22:00,
2013-06-15 06:24:00,60.4,58.7,29.93,WNW,302,4.0,5.0,94,0.00,,---,0.00,VWS V12.08,2013-06-15 10:24:00,
2013-06-15 06:25:00,60.4,58.7,29.93,WNW,302,4.0,6.0,94,0.00,,---,0.00,VWS V12.08,2013-06-15 10:25:00,
2013-06-15 06:26:00,60.4,58.7,29.93,WNW,302,5.0,6.0,94,0.00,,---,0.00,VWS V12.08,2013-06-15 10:26:00,
2013-06-15 06:27:00,60.5,58.8,29.93,WNW,302,4.0,6.0,94,0.00,,---,0.00,VWS V12.08,2013-06-15 10:27:00,
2013-06-15 06:29:00,60.6,58.9,29.93,WNW,302,5.0,6.0,94,0.00,,---,0.00,VWS V12.08,2013-06-15 10:29:00,
2013-06-15 06:30:00,60.6,58.9,29.93,WNW,302,5.0,8.0,94,0.00,,---,0.00,VWS V12.08,2013-06-15 10:30:00,
2013-06-15 06:31:00,60.7,59.0,29.93,WNW,302,5.0,5.0,94,0.00,,---,0.00,VWS V12.08,2013-06-15 10:31:00,
2013-06-15 06:32:00,60.7,59.0,29.93,WNW,302,3.0,6.0,94,0.00,,---,0.00,VWS V12.08,2013-06-15 10:32:00,
2013-06-15 06:34:00,60.7,59.0,29.93,WNW,302,4.0,6.0,94,0.00,,---,0.00,VWS V12.08,2013-06-15 10:34:00,
2013-06-15 06:35:00,60.8,59.1,29.93,WNW,302,6.0,6.0,94,0.00,,---,0.00,VWS V12.08,2013-06-15 10:35:00,
2013-06-15 06:36:00,60.8,59.1,29.93,WNW,302,3.0,6.0,94,0.00,,---,0.00,VWS V12.08,2013-06-15 10:36:00,
2013-06-15 06:37:00,60.9,59.2,29.93,WNW,302,2.0,6.0,94,0.00,,---,0.00,VWS V12.08,2013-06-15 10:37:00,
2013-06-15 06:39:00,61.0,59.3,29.93,WNW,302,4.0,6.0,94,0.00,,---,0.00,VWS V12.08,2013-06-15 10:39:00,
2013-06-15 06:40:00,61.0,59.3,29.93,WNW,302,4.0,6.0,94,0.00,,---,0.00,VWS V12.08,2013-06-15 10:40:00,
2013-06-15 06:41:00,61.1,59.4,29.93,WNW,302,4.0,4.0,94,0.00,,---,0.00,VWS V12.08,2013-06-15 10:41:00,
2013-06-15 06:42:00,61.1,59.4,29.93,WNW,302,4.0,5.0,94,0.00,,---,0.00,VWS V12.08,2013-06-15 10:42:00,
2013-06-15 06:44:00,61.2,59.5,29.93,WNW,302,4.0,6.0,94,0.00,,---,0.00,VWS V12.08,2013-06-15 10:44:00,
2013-06-15 06:45:00,61.3,59.6,29.93,WNW,302,6.0,6.0,94,0.00,,---,0.00,VWS V12.08,2013-06-15 10:45:00,
2013-06-15 06:46:00,61.3,59.6,29.93,WNW,302,5.0,8.0,94,0.00,,---,0.00,VWS V12.08,2013-06-15 10:46:00,
2013-06-15 06:47:00,61.4,59.7,29.93,WNW,302,5.0,8.0,94,0.00,,---,0.00,VWS V12.08,2013-06-15 10:47:00,
2013-06-15 06:49:00,61.5,59.8,29.93,WNW,302,5.0,8.0,94,0.00,,---,0.00,VWS V12.08,2013-06-15 10:49:00,
2013-06-15 06:50:00,61.5,59.8,29.93,WNW,302,5.0,8.0,94,0.00,,---,0.00,VWS V12.08,2013-06-15 10:50:00,
2013-06-15 06:51:00,61.6,59.9,29.94,WNW,302,3.0,6.0,94,0.00,,---,0.00,VWS V12.08,2013-06-15 10:51:00,
2013-06-15 06:53:00,61.6,59.9,29.93,WNW,302,4.0,6.0,94,0.00,,---,0.00,VWS V12.08,2013-06-15 10:53:00,
2013-06-15 06:54:00,61.7,60.0,29.93,WNW,302,6.0,7.0,94,0.00,,---,0.00,VWS V12.08,2013-06-15 10:54:00,
2013-06-15 06:55:00,61.8,60.1,29.93,WNW,301,5.0,9.0,94,0.00,,---,0.00,VWS V12.08,2013-06-15 10:55:00,
2013-06-15 06:56:00,61.8,60.1,29.93,WNW,301,4.0,9.0,94,0.00,,---,0.00,VWS V12.08,2013-06-15 10:56:00,
2013-06-15 06:58:00,61.9,60.2,29.93,WNW,301,2.0,9.0,94,0.00,,---,0.00,VWS V12.08,2013-06-15 10:58:00,
2013-06-15 06:59:00,62.1,60.4,29.93,WNW,302,5.0,9.0,94,0.00,,---,0.00,VWS V12.08,2013-06-15 10:59:00,
2013-06-15 07:00:00,62.1,60.4,29.93,WNW,303,4.0,9.0,94,0.00,,---,0.00,VWS V12.08,2013-06-15 11:00:00,
2013-06-15 07:02:00,62.2,60.5,29.93,NW,304,4.0,5.0,94,0.00,,---,0.00,VWS V12.08,2013-06-15 11:02:00,
2013-06-15 07:03:00,62.3,60.6,29.93,NW,312,5.0,10.0,94,0.00,,---,0.00,VWS V12.08,2013-06-15 11:03:00,
2013-06-15 07:05:00,62.4,60.7,29.93,NW,314,4.0,10.0,94,0.00,,---,0.00,VWS V12.08,2013-06-15 11:05:00,
2013-06-15 07:06:00,62.4,60.7,29.93,NW,313,6.0,10.0,94,0.00,,---,0.00,VWS V12.08,2013-06-15 11:06:00,
2013-06-15 07:07:00,62.5,60.8,29.93,NW,312,7.0,10.0,94,0.00,,---,0.00,VWS V12.08,2013-06-15 11:07:00,
2013-06-15 07:08:00,62.6,60.8,29.93,NW,311,6.0,10.0,94,0.00,,---,0.00,VWS V12.08,2013-06-15 11:08:00,
2013-06-15 07:10:00,62.7,61.0,29.94,NW,319,3.0,10.0,94,0.00,,---,0.00,VWS V12.08,2013-06-15 11:10:00,
2013-06-15 07:11:00,62.8,61.0,29.94,NW,319,6.0,10.0,94,0.00,,---,0.00,VWS V12.08,2013-06-15 11:11:00,
2013-06-15 07:12:00,62.9,61.2,29.94,NW,319,3.0,7.0,94,0.00,,---,0.00,VWS V12.08,2013-06-15 11:12:00,
2013-06-15 07:13:00,63.0,61.2,29.93,NW,312,7.0,7.0,94,0.00,,---,0.00,VWS V12.08,2013-06-15 11:13:00,
2013-06-15 07:15:00,63.0,61.2,29.93,NW,323,6.0,10.0,94,0.00,,---,0.00,VWS V12.08,2013-06-15 11:15:00,
2013-06-15 07:16:00,63.1,61.3,29.93,NNW,333,4.0,10.0,94,0.00,,---,0.00,VWS V12.08,2013-06-15 11:16:00,
2013-06-15 07:17:00,63.1,61.3,29.94,NW,324,3.0,10.0,94,0.00,,---,0.00,VWS V12.08,2013-06-15 11:17:00,
2013-06-15 07:18:00,63.3,61.5,29.94,NW,310,7.0,10.0,94,0.00,,---,0.00,VWS V12.08,2013-06-15 11:18:00,
2013-06-15 07:20:00,63.4,61.7,29.94,NNW,341,5.0,10.0,94,0.00,,---,0.00,VWS V12.08,2013-06-15 11:20:00,
2013-06-15 07:21:00,63.5,61.8,29.94,WNW,296,6.0,10.0,94,0.00,,---,0.00,VWS V12.08,2013-06-15 11:21:00,
2013-06-15 07:22:00,63.6,61.8,29.94,NW,307,9.0,11.0,94,0.00,,---,0.00,VWS V12.08,2013-06-15 11:22:00,
2013-06-15 07:24:00,63.7,61.6,29.94,NW,320,9.0,11.0,93,0.00,,---,0.00,VWS V12.08,2013-06-15 11:24:00,
2013-06-15 07:25:00,63.8,61.7,29.94,NW,310,9.0,11.0,93,0.00,,---,0.00,VWS V12.08,2013-06-15 11:25:00,
2013-06-15 07:26:00,63.8,61.7,29.94,NW,321,3.0,11.0,93,0.00,,---,0.00,VWS V12.08,2013-06-15 11:26:00,
2013-06-15 07:27:00,63.8,61.7,29.94,NW,319,5.0,11.0,93,0.00,,---,0.00,VWS V12.08,2013-06-15 11:27:00,
2013-06-15 07:29:00,63.9,61.8,29.94,WNW,303,7.0,11.0,93,0.00,,---,0.00,VWS V12.08,2013-06-15 11:29:00,
2013-06-15 07:30:00,64.0,61.9,29.94,NNW,329,9.0,11.0,93,0.00,,---,0.00,VWS V12.08,2013-06-15 11:30:00,
2013-06-15 07:31:00,64.0,61.9,29.94,NW,316,10.0,10.0,93,0.00,,---,0.00,VWS V12.08,2013-06-15 11:31:00,
2013-06-15 07:32:00,64.1,62.0,29.94,NW,304,10.0,11.0,93,0.00,,---,0.00,VWS V12.08,2013-06-15 11:32:00,
2013-06-15 07:34:00,64.1,61.7,29.94,NW,314,7.0,11.0,92,0.00,,---,0.00,VWS V12.08,2013-06-15 11:34:00,
2013-06-15 07:35:00,64.2,61.8,29.94,NW,318,5.0,12.0,92,0.00,,---,0.00,VWS V12.08,2013-06-15 11:35:00,
2013-06-15 07:36:00,64.2,61.8,29.94,NW,324,7.0,12.0,92,0.00,,---,0.00,VWS V12.08,2013-06-15 11:36:00,
2013-06-15 07:37:00,64.2,61.8,29.94,NW,325,6.0,12.0,92,0.00,,---,0.00,VWS V12.08,2013-06-15 11:37:00,
2013-06-15 07:38:00,64.3,61.9,29.94,NW,322,4.0,12.0,92,0.00,,---,0.00,VWS V12.08,2013-06-15 11:38:00,
2013-06-15 07:39:00,64.3,61.9,29.94,WNW,302,5.0,12.0,92,0.00,,---,0.00,VWS V12.08,2013-06-15 11:39:00,
2013-06-15 07:40:00,64.5,62.1,29.94,NW,316,3.0,12.0,92,0.00,,---,0.00,VWS V12.08,2013-06-15 11:40:00,
2013-06-15 07:41:00,64.6,62.2,29.94,NW,311,8.0,9.0,92,0.00,,---,0.00,VWS V12.08,2013-06-15 11:41:00,
2013-06-15 07:42:00,64.6,62.2,29.94,NW,307,7.0,10.0,92,0.00,,---,0.00,VWS V12.08,2013-06-15 11:42:00,
2013-06-15 07:43:00,64.7,62.3,29.94,WNW,299,7.0,10.0,92,0.00,,---,0.00,VWS V12.08,2013-06-15 11:43:00,
2013-06-15 07:44:00,64.9,62.5,29.94,NW,314,5.0,12.0,92,0.00,,---,0.00,VWS V12.08,2013-06-15 11:44:00,
2013-06-15 07:45:00,64.9,62.5,29.94,NW,322,7.0,12.0,92,0.00,,---,0.00,VWS V12.08,2013-06-15 11:45:00,
2013-06-15 07:46:00,65.0,62.6,29.94,NNW,336,5.0,12.0,92,0.00,,---,0.00,VWS V12.08,2013-06-15 11:46:00,
2013-06-15 07:47:00,65.0,62.6,29.94,NW,315,5.0,12.0,92,0.00,,---,0.00,VWS V12.08,2013-06-15 11:47:00,
2013-06-15 07:48:00,65.1,62.7,29.94,NW,325,3.0,12.0,92,0.00,,---,0.00,VWS V12.08,2013-06-15 11:48:00,
2013-06-15 07:49:00,65.3,62.9,29.94,NW,319,3.0,12.0,92,0.00,,---,0.00,VWS V12.08,2013-06-15 11:49:00,
2013-06-15 07:51:00,65.5,62.8,29.94,NNW,333,6.0,12.0,91,0.00,,---,0.00,VWS V12.08,2013-06-15 11:51:00,
2013-06-15 07:52:00,65.6,62.9,29.95,NW,315,10.0,10.0,91,0.00,,---,0.00,VWS V12.08,2013-06-15 11:52:00,
2013-06-15 07:53:00,65.7,63.0,29.95,NNW,328,13.0,15.0,91,0.00,,---,0.00,VWS V12.08,2013-06-15 11:53:00,
2013-06-15 07:54:00,65.7,63.0,29.95,NW,316,9.0,15.0,91,0.00,,---,0.00,VWS V12.08,2013-06-15 11:54:00,
2013-06-15 07:56:00,65.8,62.8,29.95,NW,322,6.0,15.0,90,0.00,,---,0.00,VWS V12.08,2013-06-15 11:56:00,
2013-06-15 07:57:00,65.8,62.8,29.95,NW,323,12.0,15.0,90,0.00,,---,0.00,VWS V12.08,2013-06-15 11:57:00,
2013-06-15 07:58:00,65.9,62.9,29.95,NW,323,13.0,15.0,90,0.00,,---,0.00,VWS V12.08,2013-06-15 11:58:00,
2013-06-15 07:59:00,66.0,63.0,29.95,NNW,329,5.0,15.0,90,0.00,,---,0.00,VWS V12.08,2013-06-15 11:59:00,
2013-06-15 08:02:00,66.2,62.9,29.95,NW,322,6.0,13.0,89,0.00,,---,0.00,VWS V12.08,2013-06-15 12:02:00,
2013-06-15 08:03:00,66.2,62.9,29.95,NNW,331,9.0,13.0,89,0.00,,---,0.00,VWS V12.08,2013-06-15 12:03:00,
2013-06-15 08:04:00,66.3,63.0,29.95,NW,304,6.0,14.0,89,0.00,,---,0.00,VWS V12.08,2013-06-15 12:04:00,
2013-06-15 08:07:00,66.5,62.8,29.95,NW,326,7.0,15.0,88,0.00,,---,0.00,VWS V12.08,2013-06-15 12:07:00,
2013-06-15 08:08:00,66.5,62.8,29.95,NNW,342,6.0,15.0,88,0.00,,---,0.00,VWS V12.08,2013-06-15 12:08:00,
2013-06-15 08:09:00,66.7,63.0,29.95,WNW,301,11.0,15.0,88,0.00,,---,0.00,VWS V12.08,2013-06-15 12:09:00,
2013-06-15 08:12:00,66.9,63.2,29.95,NW,319,5.0,13.0,88,0.00,,---,0.00,VWS V12.08,2013-06-15 12:12:00,
2013-06-15 08:13:00,67.0,63.3,29.95,NW,326,8.0,13.0,88,0.00,,---,0.00,VWS V12.08,2013-06-15 12:13:00,
2013-06-15 08:15:00,67.1,63.1,29.95,NW,309,5.0,13.0,87,0.00,,---,0.00,VWS V12.08,2013-06-15 12:15:00,
2013-06-15 08:17:00,67.3,63.3,29.95,NW,317,7.0,13.0,87,0.00,,---,0.00,VWS V12.08,2013-06-15 12:17:00,
2013-06-15 08:18:00,67.4,63.4,29.95,NW,313,12.0,14.0,87,0.00,,---,0.00,VWS V12.08,2013-06-15 12:18:00,
2013-06-15 08:20:00,67.4,63.1,29.95,NNW,343,6.0,14.0,86,0.00,,---,0.00,VWS V12.08,2013-06-15 12:20:00,
2013-06-15 08:22:00,67.6,63.3,29.95,NW,307,6.0,17.0,86,0.00,,---,0.00,VWS V12.08,2013-06-15 12:22:00,
2013-06-15 08:23:00,67.7,63.4,29.95,NW,308,4.0,17.0,86,0.00,,---,0.00,VWS V12.08,2013-06-15 12:23:00,
2013-06-15 08:25:00,67.8,63.5,29.95,NNW,336,10.0,17.0,86,0.00,,---,0.00,VWS V12.08,2013-06-15 12:25:00,
2013-06-15 08:27:00,68.1,63.4,29.95,NW,326,5.0,17.0,85,0.00,,---,0.00,VWS V12.08,2013-06-15 12:27:00,
2013-06-15 08:28:00,68.1,63.4,29.95,NNW,331,14.0,17.0,85,0.00,,---,0.00,VWS V12.08,2013-06-15 12:28:00,
2013-06-15 08:29:00,68.2,63.5,29.95,NW,321,10.0,17.0,85,0.00,,---,0.00,VWS V12.08,2013-06-15 12:29:00,
2013-06-15 08:30:00,68.2,63.5,29.95,NW,317,11.0,17.0,85,0.00,,---,0.00,VWS V12.08,2013-06-15 12:30:00,
2013-06-15 08:32:00,68.5,63.8,29.96,NNW,341,7.0,14.0,85,0.00,,---,0.00,VWS V12.08,2013-06-15 12:32:00,
2013-06-15 08:33:00,68.5,63.8,29.96,NNW,329,11.0,14.0,85,0.00,,---,0.00,VWS V12.08,2013-06-15 12:33:00,
2013-06-15 08:34:00,68.6,63.6,29.96,NW,326,8.0,14.0,84,0.00,,---,0.00,VWS V12.08,2013-06-15 12:34:00,
2013-06-15 08:35:00,68.6,63.6,29.96,NW,317,14.0,14.0,84,0.00,,---,0.00,VWS V12.08,2013-06-15 12:35:00,
2013-06-15 08:37:00,68.8,63.4,29.96,NW,319,10.0,15.0,83,0.00,,---,0.00,VWS V12.08,2013-06-15 12:37:00,
2013-06-15 08:38:00,68.8,63.4,29.96,North,355,10.0,15.0,83,0.00,,---,0.00,VWS V12.08,2013-06-15 12:38:00,
2013-06-15 08:39:00,68.9,63.5,29.96,NNW,333,9.0,15.0,83,0.00,,---,0.00,VWS V12.08,2013-06-15 12:39:00,
2013-06-15 08:40:00,68.9,63.5,29.96,NNW,330,7.0,15.0,83,0.00,,---,0.00,VWS V12.08,2013-06-15 12:40:00,
2013-06-15 08:42:00,69.2,63.8,29.97,NNW,338,10.0,13.0,83,0.00,,---,0.00,VWS V12.08,2013-06-15 12:42:00,
2013-06-15 08:43:00,69.2,63.5,29.97,NNW,327,14.0,14.0,82,0.00,,---,0.00,VWS V12.08,2013-06-15 12:43:00,
2013-06-15 08:44:00,69.2,63.5,29.97,NW,311,9.0,15.0,82,0.00,,---,0.00,VWS V12.08,2013-06-15 12:44:00,
2013-06-15 08:45:00,69.3,63.6,29.97,NNW,344,6.0,15.0,82,0.00,,---,0.00,VWS V12.08,2013-06-15 12:45:00,
2013-06-15 08:47:00,69.5,63.8,29.97,NNW,344,10.0,17.0,82,0.00,,---,0.00,VWS V12.08,2013-06-15 12:47:00,
2013-06-15 08:48:00,69.5,63.4,29.97,NW,325,10.0,17.0,81,0.00,,---,0.00,VWS V12.08,2013-06-15 12:48:00,
2013-06-15 08:49:00,69.6,63.5,29.97,NNW,344,7.0,17.0,81,0.00,,---,0.00,VWS V12.08,2013-06-15 12:49:00,
2013-06-15 08:50:00,69.8,64.1,29.97,NW,319,14.0,17.0,82,0.00,,---,0.00,VWS V12.08,2013-06-15 12:50:00,
2013-06-15 08:53:00,69.9,63.5,29.97,NW,326,12.0,17.0,80,0.00,,---,0.00,VWS V12.08,2013-06-15 12:53:00,
2013-06-15 08:54:00,70.0,63.5,29.97,NNW,341,7.0,17.0,80,0.00,,---,0.00,VWS V12.08,2013-06-15 12:54:00,
2013-06-15 08:55:00,70.2,63.8,29.97,NW,307,11.0,17.0,80,0.00,,---,0.00,VWS V12.08,2013-06-15 12:55:00,
2013-06-15 08:58:00,70.4,63.9,29.97,NW,325,8.0,17.0,80,0.00,,---,0.00,VWS V12.08,2013-06-15 12:58:00,
2013-06-15 08:59:00,70.4,63.9,29.97,NNW,336,11.0,17.0,80,0.00,,---,0.00,VWS V12.08,2013-06-15 12:59:00,
2013-06-15 09:00:00,70.4,63.9,29.98,NNW,337,15.0,17.0,80,0.00,,---,0.00,VWS V12.08,2013-06-15 13:00:00,
2013-06-15 09:01:00,70.5,63.7,29.98,NNW,337,7.0,17.0,79,0.00,,---,0.00,VWS V12.08,2013-06-15 13:01:00,
2013-06-15 09:03:00,70.7,63.9,29.98,North,350,7.0,12.0,79,0.00,,---,0.00,VWS V12.08,2013-06-15 13:03:00,
2013-06-15 09:04:00,70.7,63.9,29.97,NW,325,6.0,12.0,79,0.00,,---,0.00,VWS V12.08,2013-06-15 13:04:00,
2013-06-15 09:05:00,70.8,64.0,29.97,NNW,334,11.0,12.0,79,0.00,,---,0.00,VWS V12.08,2013-06-15 13:05:00,
2013-06-15 09:06:00,70.9,64.1,29.97,NNW,346,10.0,13.0,79,0.00,,---,0.00,VWS V12.08,2013-06-15 13:06:00,
2013-06-15 09:08:00,71.1,64.3,29.97,NNW,342,6.0,14.0,79,0.00,,---,0.00,VWS V12.08,2013-06-15 13:08:00,
2013-06-15 09:09:00,71.1,63.9,29.97,NNW,343,5.0,14.0,78,0.00,,---,0.00,VWS V12.08,2013-06-15 13:09:00,
2013-06-15 09:10:00,71.2,64.0,29.97,NNW,342,5.0,14.0,78,0.00,,---,0.00,VWS V12.08,2013-06-15 13:10:00,
2013-06-15 09:11:00,71.3,64.1,29.97,NNW,335,10.0,13.0,78,0.00,,---,0.00,VWS V12.08,2013-06-15 13:11:00,
2013-06-15 09:13:00,71.5,64.3,29.97,NW,322,10.0,13.0,78,0.00,,---,0.00,VWS V12.08,2013-06-15 13:13:00,
2013-06-15 09:14:00,71.5,63.9,29.97,NNW,331,6.0,13.0,77,0.00,,---,0.00,VWS V12.08,2013-06-15 13:14:00,
2013-06-15 09:15:00,71.6,64.0,29.97,NW,324,12.0,15.0,77,0.00,,---,0.00,VWS V12.08,2013-06-15 13:15:00,
2013-06-15 09:16:00,71.7,64.1,29.97,North,350,11.0,15.0,77,0.00,,---,0.00,VWS V12.08,2013-06-15 13:16:00,
2013-06-15 09:18:00,71.8,64.2,29.97,NNW,341,10.0,15.0,77,0.00,,---,0.00,VWS V12.08,2013-06-15 13:18:00,
2013-06-15 09:19:00,71.8,64.2,29.97,NNW,340,9.0,15.0,77,0.00,,---,0.00,VWS V12.08,2013-06-15 13:19:00,
2013-06-15 09:20:00,72.0,64.4,29.97,NNW,340,4.0,15.0,77,0.00,,---,0.00,VWS V12.08,2013-06-15 13:20:00,
2013-06-15 09:21:00,72.0,64.0,29.98,North,11,8.0,12.0,76,0.00,,---,0.00,VWS V12.08,2013-06-15 13:21:00,
2013-06-15 09:23:00,72.1,64.1,29.98,North,355,10.0,14.0,76,0.00,,---,0.00,VWS V12.08,2013-06-15 13:23:00,
2013-06-15 09:24:00,72.1,64.1,29.98,North,355,7.0,14.0,76,0.00,,---,0.00,VWS V12.08,2013-06-15 13:24:00,
2013-06-15 09:25:00,72.3,63.9,29.98,NNW,343,10.0,14.0,75,0.00,,---,0.00,VWS V12.08,2013-06-15 13:25:00,
2013-06-15 09:26:00,72.5,64.5,29.98,NW,323,9.0,15.0,76,0.00,,---,0.00,VWS V12.08,2013-06-15 13:26:00,
2013-06-15 09:28:00,72.5,64.1,29.98,NNW,336,5.0,15.0,75,0.00,,---,0.00,VWS V12.08,2013-06-15 13:28:00,
2013-06-15 09:29:00,72.6,64.2,29.98,NNW,331,14.0,15.0,75,0.00,,---,0.00,VWS V12.08,2013-06-15 13:29:00,
2013-06-15 09:30:00,72.6,64.2,29.98,NNW,336,11.0,15.0,75,0.00,,---,0.00,VWS V12.08,2013-06-15 13:30:00,
2013-06-15 09:31:00,72.6,64.2,29.98,North,355,12.0,15.0,75,0.00,,---,0.00,VWS V12.08,2013-06-15 13:31:00,
2013-06-15 09:32:00,72.7,64.3,29.98,NNW,337,4.0,12.0,75,0.00,,---,0.00,VWS V12.08,2013-06-15 13:32:00,
2013-06-15 09:33:00,72.7,64.3,29.98,NNW,342,13.0,13.0,75,0.00,,---,0.00,VWS V12.08,2013-06-15 13:33:00,
2013-06-15 09:34:00,72.8,64.4,29.98,NNW,345,14.0,14.0,75,0.00,,---,0.00,VWS V12.08,2013-06-15 13:34:00,
2013-06-15 09:35:00,72.8,64.0,29.98,NW,321,10.0,14.0,74,0.00,,---,0.00,VWS V12.08,2013-06-15 13:35:00,
2013-06-15 09:36:00,72.8,64.0,29.98,NNW,329,11.0,14.0,74,0.00,,---,0.00,VWS V12.08,2013-06-15 13:36:00,
2013-06-15 09:37:00,72.8,64.0,29.98,NW,319,4.0,14.0,74,0.00,,---,0.00,VWS V12.08,2013-06-15 13:37:00,
2013-06-15 09:38:00,72.9,63.8,29.98,NNW,336,15.0,17.0,73,0.00,,---,0.00,VWS V12.08,2013-06-15 13:38:00,
2013-06-15 09:39:00,72.9,63.8,29.98,North,11,6.0,17.0,73,0.00,,---,0.00,VWS V12.08,2013-06-15 13:39:00,
2013-06-15 09:40:00,72.9,63.8,29.98,North,355,8.0,17.0,73,0.00,,---,0.00,VWS V12.08,2013-06-15 13:40:00,
2013-06-15 09:41:00,73.0,63.8,29.98,North,360,8.0,15.0,73,0.00,,---,0.00,VWS V12.08,2013-06-15 13:41:00,
2013-06-15 09:42:00,73.0,63.8,29.98,North,9,6.0,15.0,73,0.00,,---,0.00,VWS V12.08,2013-06-15 13:42:00,
2013-06-15 09:43:00,73.1,63.9,29.98,NNW,340,11.0,15.0,73,0.00,,---,0.00,VWS V12.08,2013-06-15 13:43:00,
2013-06-15 09:44:00,73.2,64.0,29.98,NNW,332,13.0,15.0,73,0.00,,---,0.00,VWS V12.08,2013-06-15 13:44:00,
2013-06-15 09:45:00,73.2,64.0,29.98,NNW,333,8.0,15.0,73,0.00,,---,0.00,VWS V12.08,2013-06-15 13:45:00,
2013-06-15 09:46:00,73.3,64.5,29.98,NW,311,9.0,15.0,74,0.00,,---,0.00,VWS V12.08,2013-06-15 13:46:00,
2013-06-15 09:47:00,73.4,64.6,29.98,NNW,336,4.0,15.0,74,0.00,,---,0.00,VWS V12.08,2013-06-15 13:47:00,
2013-06-15 09:49:00,73.6,64.8,29.98,NNW,346,9.0,15.0,74,0.00,,---,0.00,VWS V12.08,2013-06-15 13:49:00,
2013-06-15 09:50:00,73.6,64.8,29.98,NNE,29,5.0,15.0,74,0.00,,---,0.00,VWS V12.08,2013-06-15 13:50:00,
2013-06-15 09:51:00,73.7,64.9,29.98,NW,315,4.0,8.0,74,0.00,,---,0.00,VWS V12.08,2013-06-15 13:51:00,
2013-06-15 09:53:00,73.8,65.0,29.98,NW,318,7.0,8.0,74,0.00,,---,0.00,VWS V12.08,2013-06-15 13:53:00,
2013-06-15 09:54:00,73.9,65.1,29.98,NW,320,9.0,13.0,74,0.00,,---,0.00,VWS V12.08,2013-06-15 13:54:00,
2013-06-15 09:55:00,73.9,65.1,29.98,NNW,343,6.0,13.0,74,0.00,,---,0.00,VWS V12.08,2013-06-15 13:55:00,
2013-06-15 09:56:00,74.0,65.2,29.98,NNW,329,7.0,13.0,74,0.00,,---,0.00,VWS V12.08,2013-06-15 13:56:00,
2013-06-15 09:58:00,74.1,64.9,29.98,NNW,345,6.0,13.0,73,0.00,,---,0.00,VWS V12.08,2013-06-15 13:58:00,
2013-06-15 09:59:00,74.2,65.4,29.98,NW,322,9.0,13.0,74,0.00,,---,0.00,VWS V12.08,2013-06-15 13:59:00,
2013-06-15 10:00:00,74.2,65.0,29.98,NW,321,12.0,14.0,73,0.00,,---,0.00,VWS V12.08,2013-06-15 14:00:00,
2013-06-15 10:01:00,74.2,65.0,29.98,NW,307,9.0,10.0,73,0.00,,---,0.00,VWS V12.08,2013-06-15 14:01:00,
2013-06-15 10:03:00,74.3,65.1,29.98,North,349,5.0,11.0,73,0.00,,---,0.00,VWS V12.08,2013-06-15 14:03:00,
2013-06-15 10:04:00,74.3,65.1,29.98,NW,319,7.0,11.0,73,0.00,,---,0.00,VWS V12.08,2013-06-15 14:04:00,
2013-06-15 10:05:00,74.4,65.2,29.98,NNW,342,10.0,11.0,73,0.00,,---,0.00,VWS V12.08,2013-06-15 14:05:00,
2013-06-15 10:06:00,74.4,65.2,29.98,NW,319,6.0,11.0,73,0.00,,---,0.00,VWS V12.08,2013-06-15 14:06:00,
2013-06-15 10:08:00,74.6,65.4,29.98,NW,319,12.0,14.0,73,0.00,,---,0.00,VWS V12.08,2013-06-15 14:08:00,
2013-06-15 10:09:00,74.7,65.5,29.98,NW,326,11.0,14.0,73,0.00,,---,0.00,VWS V12.08,2013-06-15 14:09:00,
2013-06-15 10:10:00,74.8,65.6,29.98,NNW,327,5.0,14.0,73,0.00,,---,0.00,VWS V12.08,2013-06-15 14:10:00,
2013-06-15 10:11:00,74.9,65.7,29.98,NNW,328,8.0,9.0,73,0.00,,---,0.00,VWS V12.08,2013-06-15 14:11:00,
2013-06-15 10:12:00,74.9,65.3,29.98,NNW,338,7.0,9.0,72,0.00,,---,0.00,VWS V12.08,2013-06-15 14:12:00,
2013-06-15 10:13:00,74.9,65.3,29.97,North,5,4.0,9.0,72,0.00,,---,0.00,VWS V12.08,2013-06-15 14:13:00,
2013-06-15 10:14:00,74.9,65.3,29.98,NNW,342,9.0,10.0,72,0.00,,---,0.00,VWS V12.08,2013-06-15 14:14:00,
2013-06-15 10:15:00,74.9,64.9,29.97,NNW,342,5.0,12.0,71,0.00,,---,0.00,VWS V12.08,2013-06-15 14:15:00,
2013-06-15 10:16:00,74.9,64.9,29.98,NNW,342,5.0,12.0,71,0.00,,---,0.00,VWS V12.08,2013-06-15 14:16:00,
2013-06-15 10:17:00,75.0,65.4,29.98,NNW,339,6.0,12.0,72,0.00,,---,0.00,VWS V12.08,2013-06-15 14:17:00,
2013-06-15 10:18:00,75.1,65.5,29.97,NNW,331,6.0,12.0,72,0.00,,---,0.00,VWS V12.08,2013-06-15 14:18:00,
2013-06-15 10:19:00,75.1,65.1,29.98,NNW,335,7.0,12.0,71,0.00,,---,0.00,VWS V12.08,2013-06-15 14:19:00,
2013-06-15 10:20:00,75.2,65.6,29.97,NNW,335,6.0,12.0,72,0.00,,---,0.00,VWS V12.08,2013-06-15 14:20:00,
2013-06-15 10:21:00,75.2,65.6,29.97,NNW,336,3.0,5.0,72,0.00,,---,0.00,VWS V12.08,2013-06-15 14:21:00,
2013-06-15 10:22:00,75.3,65.7,29.97,NNW,329,5.0,7.0,72,0.00,,---,0.00,VWS V12.08,2013-06-15 14:22:00,
2013-06-15 10:23:00,75.4,65.8,29.97,NW,315,5.0,7.0,72,0.00,,---,0.00,VWS V12.08,2013-06-15 14:23:00,
2013-06-15 10:24:00,75.5,66.2,29.98,NNW,342,7.0,10.0,73,0.00,,---,0.00,VWS V12.08,2013-06-15 14:24:00,
2013-06-15 10:25:00,75.6,66.3,29.97,NNW,342,5.0,10.0,73,0.00,,---,0.00,VWS V12.08,2013-06-15 14:25:00,
2013-06-15 10:26:00,75.7,66.4,29.97,NNW,336,5.0,10.0,73,0.00,,---,0.00,VWS V12.08,2013-06-15 14:26:00,
2013-06-15 10:27:00,75.8,66.5,29.97,NNW,334,10.0,13.0,73,0.00,,---,0.00,VWS V12.08,2013-06-15 14:27:00,
2013-06-15 10:29:00,75.9,66.2,29.97,NW,309,10.0,13.0,72,0.00,,---,0.00,VWS V12.08,2013-06-15 14:29:00,
2013-06-15 10:30:00,76.0,65.9,29.97,NNW,342,6.0,13.0,71,0.00,,---,0.00,VWS V12.08,2013-06-15 14:30:00,
2013-06-15 10:31:00,76.0,65.5,29.97,NNW,337,5.0,7.0,70,0.00,,---,0.00,VWS V12.08,2013-06-15 14:31:00,
2013-06-15 10:32:00,76.1,66.0,29.97,NNW,336,10.0,10.0,71,0.00,,---,0.00,VWS V12.08,2013-06-15 14:32:00,
2013-06-15 10:34:00,76.2,66.1,29.97,NNW,331,4.0,11.0,71,0.00,,---,0.00,VWS V12.08,2013-06-15 14:34:00,
2013-06-15 10:36:00,76.4,65.5,29.97,NNW,331,4.0,11.0,69,0.00,,---,0.00,VWS V12.08,2013-06-15 14:36:00,
2013-06-15 10:37:00,76.5,65.6,29.97,WNW,302,6.0,12.0,69,0.00,,---,0.00,VWS V12.08,2013-06-15 14:37:00,
2013-06-15 10:39:00,76.6,66.1,29.97,NW,304,2.0,12.0,70,0.00,,---,0.00,VWS V12.08,2013-06-15 14:39:00,
2013-06-15 10:40:00,76.7,66.2,29.97,NNW,333,3.0,12.0,70,0.00,,---,0.00,VWS V12.08,2013-06-15 14:40:00,
2013-06-15 10:41:00,76.8,66.3,29.97,North,349,4.0,12.0,70,0.00,,---,0.00,VWS V12.08,2013-06-15 14:41:00,
2013-06-15 10:42:00,77.0,66.1,29.97,NNW,332,6.0,9.0,69,0.00,,---,0.00,VWS V12.08,2013-06-15 14:42:00,
2013-06-15 10:44:00,77.2,66.2,29.97,NNW,336,9.0,12.0,69,0.00,,---,0.00,VWS V12.08,2013-06-15 14:44:00,
2013-06-15 10:45:00,77.1,65.3,29.97,WNW,300,10.0,12.0,67,0.00,,---,0.00,VWS V12.08,2013-06-15 14:45:00,
2013-06-15 10:46:00,77.2,65.4,29.97,NW,307,9.0,13.0,67,0.00,,---,0.00,VWS V12.08,2013-06-15 14:46:00,
2013-06-15 10:48:00,77.2,65.4,29.97,NNW,332,6.0,13.0,67,0.00,,---,0.00,VWS V12.08,2013-06-15 14:48:00,
2013-06-15 10:49:00,77.2,65.0,29.97,NNW,332,2.0,13.0,66,0.00,,---,0.00,VWS V12.08,2013-06-15 14:49:00,
2013-06-15 10:50:00,77.3,65.9,29.97,NNW,332,6.0,13.0,68,0.00,,---,0.00,VWS V12.08,2013-06-15 14:50:00,
2013-06-15 10:51:00,77.3,65.9,29.97,NNW,332,2.0,3.0,68,0.00,,---,0.00,VWS V12.08,2013-06-15 14:51:00,
2013-06-15 10:52:00,77.4,65.6,29.97,NNW,331,7.0,7.0,67,0.00,,---,0.00,VWS V12.08,2013-06-15 14:52:00,
2013-06-15 10:53:00,77.4,65.2,29.97,NW,309,6.0,7.0,66,0.00,,---,0.00,VWS V12.08,2013-06-15 14:53:00,
2013-06-15 10:54:00,77.5,65.3,29.97,WNW,296,8.0,11.0,66,0.00,,---,0.00,VWS V12.08,2013-06-15 14:54:00,
2013-06-15 10:55:00,77.6,65.8,29.97,WNW,294,5.0,11.0,67,0.00,,---,0.00,VWS V12.08,2013-06-15 14:55:00,
2013-06-15 10:56:00,77.6,65.3,29.97,WNW,294,7.0,11.0,66,0.00,,---,0.00,VWS V12.08,2013-06-15 14:56:00,
2013-06-15 10:57:00,77.6,65.3,29.97,WNW,294,5.0,11.0,66,0.00,,---,0.00,VWS V12.08,2013-06-15 14:57:00,
2013-06-15 10:58:00,77.7,65.9,29.98,WNW,298,12.0,12.0,67,0.00,,---,0.00,VWS V12.08,2013-06-15 14:58:00,
2013-06-15 10:59:00,77.8,65.1,29.97,NW,317,12.0,13.0,65,0.00,,---,0.00,VWS V12.08,2013-06-15 14:59:00,
2013-06-15 11:00:00,77.8,64.2,29.98,WNW,302,6.0,13.0,63,0.00,,---,0.00,VWS V12.08,2013-06-15 15:00:00,
2013-06-15 11:01:00,77.8,64.2,29.97,NW,306,7.0,7.0,63,0.00,,---,0.00,VWS V12.08,2013-06-15 15:01:00,
2013-06-15 11:02:00,77.8,64.2,29.97,NW,324,5.0,7.0,63,0.00,,---,0.00,VWS V12.08,2013-06-15 15:02:00,
2013-06-15 11:03:00,77.8,64.7,29.97,NW,323,4.0,7.0,64,0.00,,---,0.00,VWS V12.08,2013-06-15 15:03:00,
2013-06-15 11:05:00,77.9,65.2,29.97,NNW,346,9.0,14.0,65,0.00,,---,0.00,VWS V12.08,2013-06-15 15:05:00,
2013-06-15 11:06:00,78.0,63.9,29.97,NNE,17,3.0,14.0,62,0.00,,---,0.00,VWS V12.08,2013-06-15 15:06:00,
2013-06-15 11:07:00,78.0,63.9,29.97,NW,326,6.0,14.0,62,0.00,,---,0.00,VWS V12.08,2013-06-15 15:07:00,
2013-06-15 11:08:00,78.1,65.4,29.97,WNW,295,5.0,14.0,65,0.00,,---,0.00,VWS V12.08,2013-06-15 15:08:00,
2013-06-15 11:10:00,78.3,65.6,29.97,NNW,333,5.0,14.0,65,0.00,,---,0.00,VWS V12.08,2013-06-15 15:10:00,
2013-06-15 11:12:00,78.5,64.4,29.97,NNW,327,9.0,13.0,62,0.00,,---,0.00,VWS V12.08,2013-06-15 15:12:00,
2013-06-15 11:13:00,78.5,64.0,29.97,NNW,341,9.0,13.0,61,0.00,,---,0.00,VWS V12.08,2013-06-15 15:13:00,
2013-06-15 11:15:00,78.4,63.8,29.97,NW,321,7.0,13.0,61,0.00,,---,0.00,VWS V12.08,2013-06-15 15:15:00,
2013-06-15 11:17:00,78.4,64.3,29.97,NNW,327,3.0,13.0,62,0.00,,---,0.00,VWS V12.08,2013-06-15 15:17:00,
2013-06-15 11:19:00,78.4,63.8,29.97,NW,317,5.0,13.0,61,0.00,,---,0.00,VWS V12.08,2013-06-15 15:19:00,
2013-06-15 11:20:00,78.5,64.4,29.97,NW,320,8.0,13.0,62,0.00,,---,0.00,VWS V12.08,2013-06-15 15:20:00,
2013-06-15 11:21:00,78.6,65.4,29.97,NW,321,2.0,13.0,64,0.00,,---,0.00,VWS V12.08,2013-06-15 15:21:00,
2013-06-15 11:22:00,78.8,65.2,29.97,NNW,344,10.0,13.0,63,0.00,,---,0.00,VWS V12.08,2013-06-15 15:22:00,
2013-06-15 11:24:00,78.9,63.8,29.97,NW,320,14.0,14.0,60,0.00,,---,0.00,VWS V12.08,2013-06-15 15:24:00,
2013-06-15 11:25:00,78.9,63.4,29.97,NW,317,10.0,14.0,59,0.00,,---,0.00,VWS V12.08,2013-06-15 15:25:00,
2013-06-15 11:26:00,78.9,63.4,29.97,NW,320,6.0,14.0,59,0.00,,---,0.00,VWS V12.08,2013-06-15 15:26:00,
2013-06-15 11:27:00,78.9,64.3,29.97,NW,309,10.0,14.0,61,0.00,,---,0.00,VWS V12.08,2013-06-15 15:27:00,
2013-06-15 11:29:00,78.9,63.4,29.97,NW,319,7.0,14.0,59,0.00,,---,0.00,VWS V12.08,2013-06-15 15:29:00,
2013-06-15 11:30:00,79.0,62.5,29.97,NW,323,10.0,14.0,57,0.00,,---,0.00,VWS V12.08,2013-06-15 15:30:00,
2013-06-15 11:31:00,78.9,62.4,29.97,WNW,285,7.0,14.0,57,0.00,,---,0.00,VWS V12.08,2013-06-15 15:31:00,
2013-06-15 11:32:00,79.0,63.0,29.97,NW,309,11.0,12.0,58,0.00,,---,0.00,VWS V12.08,2013-06-15 15:32:00,
2013-06-15 11:34:00,79.0,62.5,29.97,NW,319,5.0,13.0,57,0.00,,---,0.00,VWS V12.08,2013-06-15 15:34:00,
2013-06-15 11:35:00,79.0,63.5,29.97,WNW,296,5.0,13.0,59,0.00,,---,0.00,VWS V12.08,2013-06-15 15:35:00,
2013-06-15 11:36:00,79.0,63.5,29.97,NW,323,7.0,13.0,59,0.00,,---,0.00,VWS V12.08,2013-06-15 15:36:00,
2013-06-15 11:37:00,79.1,63.1,29.97,NNW,336,10.0,13.0,58,0.00,,---,0.00,VWS V12.08,2013-06-15 15:37:00,
2013-06-15 11:39:00,79.2,63.2,29.97,NW,313,6.0,14.0,58,0.00,,---,0.00,VWS V12.08,2013-06-15 15:39:00,
2013-06-15 11:40:00,79.3,63.3,29.97,NW,322,11.0,14.0,58,0.00,,---,0.00,VWS V12.08,2013-06-15 15:40:00,
2013-06-15 11:41:00,79.4,63.8,29.97,NNW,329,11.0,13.0,59,0.00,,---,0.00,VWS V12.08,2013-06-15 15:41:00,
2013-06-15 11:42:00,79.4,62.3,29.97,North,355,11.0,13.0,56,0.00,,---,0.00,VWS V12.08,2013-06-15 15:42:00,
2013-06-15 11:44:00,79.6,62.0,29.96,NNW,333,6.0,13.0,55,0.00,,---,0.00,VWS V12.08,2013-06-15 15:44:00,
2013-06-15 11:45:00,79.6,62.0,29.96,NW,313,10.0,13.0,55,0.00,,---,0.00,VWS V12.08,2013-06-15 15:45:00,
2013-06-15 11:46:00,79.6,62.0,29.96,NNW,338,8.0,13.0,55,0.00,,---,0.00,VWS V12.08,2013-06-15 15:46:00,
2013-06-15 11:47:00,79.7,62.6,29.96,NNW,337,7.0,13.0,56,0.00,,---,0.00,VWS V12.08,2013-06-15 15:47:00,
2013-06-15 11:49:00,79.7,62.1,29.97,NNW,341,9.0,13.0,55,0.00,,---,0.00,VWS V12.08,2013-06-15 15:49:00,
2013-06-15 11:50:00,79.8,63.2,29.97,NNW,341,3.0,13.0,57,0.00,,---,0.00,VWS V12.08,2013-06-15 15:50:00,
2013-06-15 11:51:00,79.8,63.7,29.97,WNW,294,9.0,10.0,58,0.00,,---,0.00,VWS V12.08,2013-06-15 15:51:00,
2013-06-15 11:52:00,79.8,63.7,29.96,WNW,302,10.0,11.0,58,0.00,,---,0.00,VWS V12.08,2013-06-15 15:52:00,
2013-06-15 11:55:00,79.9,63.3,29.96,NNW,327,9.0,13.0,57,0.00,,---,0.00,VWS V12.08,2013-06-15 15:55:00,
2013-06-15 11:56:00,79.9,63.3,29.96,WNW,290,9.0,13.0,57,0.00,,---,0.00,VWS V12.08,2013-06-15 15:56:00,
2013-06-15 11:57:00,80.0,62.9,29.96,WNW,292,6.0,13.0,56,0.00,,---,0.00,VWS V12.08,2013-06-15 15:57:00,
2013-06-15 12:00:00,80.4,63.8,29.96,West,274,5.0,13.0,57,0.00,,---,0.00,VWS V12.08,2013-06-15 16:00:00,
2013-06-15 12:01:00,80.5,63.9,29.96,West,278,6.0,13.0,57,0.00,,---,0.00,VWS V12.08,2013-06-15 16:01:00,
2013-06-15 12:02:00,80.6,63.5,29.96,WNW,292,10.0,10.0,56,0.00,,---,0.00,VWS V12.08,2013-06-15 16:02:00,
2013-06-15 12:05:00,80.8,63.1,29.96,NW,306,5.0,10.0,55,0.00,,---,0.00,VWS V12.08,2013-06-15 16:05:00,
2013-06-15 12:06:00,80.8,63.1,29.96,WNW,289,9.0,10.0,55,0.00,,---,0.00,VWS V12.08,2013-06-15 16:06:00,
2013-06-15 12:07:00,80.8,62.6,29.96,WNW,288,6.0,10.0,54,0.00,,---,0.00,VWS V12.08,2013-06-15 16:07:00,
2013-06-15 12:08:00,80.8,63.1,29.96,WNW,287,7.0,12.0,55,0.00,,---,0.00,VWS V12.08,2013-06-15 16:08:00,
2013-06-15 12:10:00,80.7,63.0,29.96,NW,325,11.0,14.0,55,0.00,,---,0.00,VWS V12.08,2013-06-15 16:10:00,
2013-06-15 12:11:00,80.7,61.5,29.96,WNW,297,7.0,11.0,52,0.00,,---,0.00,VWS V12.08,2013-06-15 16:11:00,
2013-06-15 12:12:00,80.6,61.9,29.96,WNW,298,9.0,11.0,53,0.00,,---,0.00,VWS V12.08,2013-06-15 16:12:00,
2013-06-15 12:13:00,80.6,61.9,29.96,WNW,288,14.0,14.0,53,0.00,,---,0.00,VWS V12.08,2013-06-15 16:13:00,
2013-06-15 12:16:00,80.6,61.4,29.96,WNW,295,5.0,15.0,52,0.00,,---,0.00,VWS V12.08,2013-06-15 16:16:00,
2013-06-15 12:17:00,80.5,61.3,29.96,WNW,292,9.0,15.0,52,0.00,,---,0.00,VWS V12.08,2013-06-15 16:17:00,
2013-06-15 12:18:00,80.5,62.3,29.96,NNW,333,13.0,15.0,54,0.00,,---,0.00,VWS V12.08,2013-06-15 16:18:00,
2013-06-15 12:21:00,80.5,61.8,29.97,WNW,298,3.0,16.0,53,0.00,,---,0.00,VWS V12.08,2013-06-15 16:21:00,
2013-06-15 12:22:00,80.4,62.8,29.97,NW,309,11.0,11.0,55,0.00,,---,0.00,VWS V12.08,2013-06-15 16:22:00,
2013-06-15 12:23:00,80.4,62.8,29.97,West,273,9.0,16.0,55,0.00,,---,0.00,VWS V12.08,2013-06-15 16:23:00,
2013-06-15 12:26:00,80.5,61.3,29.97,WNW,291,6.0,16.0,52,0.00,,---,0.00,VWS V12.08,2013-06-15 16:26:00,
2013-06-15 12:27:00,80.5,61.3,29.96,WNW,299,17.0,17.0,52,0.00,,---,0.00,VWS V12.08,2013-06-15 16:27:00,
2013-06-15 12:28:00,80.4,61.2,29.96,NW,304,14.0,17.0,52,0.00,,---,0.00,VWS V12.08,2013-06-15 16:28:00,
2013-06-15 12:29:00,80.4,61.2,29.96,West,273,11.0,17.0,52,0.00,,---,0.00,VWS V12.08,2013-06-15 16:29:00,
2013-06-15 12:31:00,80.4,61.7,29.96,WNW,284,7.0,10.0,53,0.00,,---,0.00,VWS V12.08,2013-06-15 16:31:00,
2013-06-15 12:32:00,80.5,61.8,29.96,WNW,291,10.0,13.0,53,0.00,,---,0.00,VWS V12.08,2013-06-15 16:32:00,
2013-06-15 12:33:00,80.5,61.8,29.96,WNW,302,12.0,13.0,53,0.00,,---,0.00,VWS V12.08,2013-06-15 16:33:00,
2013-06-15 12:34:00,80.5,61.8,29.96,North,355,6.0,13.0,53,0.00,,---,0.00,VWS V12.08,2013-06-15 16:34:00,
2013-06-15 12:36:00,80.8,62.1,29.96,WNW,287,11.0,14.0,53,0.00,,---,0.00,VWS V12.08,2013-06-15 16:36:00,
2013-06-15 12:37:00,80.9,62.2,29.96,WNW,289,10.0,14.0,53,0.00,,---,0.00,VWS V12.08,2013-06-15 16:37:00,
2013-06-15 12:38:00,81.0,62.3,29.96,WNW,299,10.0,14.0,53,0.00,,---,0.00,VWS V12.08,2013-06-15 16:38:00,
2013-06-15 12:39:00,81.1,62.9,29.96,WNW,294,6.0,14.0,54,0.00,,---,0.00,VWS V12.08,2013-06-15 16:39:00,
2013-06-15 12:42:00,81.4,62.6,29.96,West,272,10.0,18.0,53,0.00,,---,0.00,VWS V12.08,2013-06-15 16:42:00,
2013-06-15 12:43:00,81.4,62.6,29.96,WNW,293,11.0,18.0,53,0.00,,---,0.00,VWS V12.08,2013-06-15 16:43:00,
2013-06-15 12:44:00,81.4,62.6,29.96,NW,306,14.0,18.0,53,0.00,,---,0.00,VWS V12.08,2013-06-15 16:44:00,
2013-06-15 12:47:00,81.3,62.5,29.96,West,265,13.0,18.0,53,0.00,,---,0.00,VWS V12.08,2013-06-15 16:47:00,
2013-06-15 12:48:00,81.1,61.8,29.96,NW,305,8.0,18.0,52,0.00,,---,0.00,VWS V12.08,2013-06-15 16:48:00,
2013-06-15 12:49:00,81.1,61.8,29.96,NW,318,9.0,18.0,52,0.00,,---,0.00,VWS V12.08,2013-06-15 16:49:00,
2013-06-15 12:50:00,80.9,61.6,29.96,WNW,302,12.0,18.0,52,0.00,,---,0.00,VWS V12.08,2013-06-15 16:50:00,
2013-06-15 12:52:00,80.8,62.1,29.95,WNW,295,9.0,12.0,53,0.00,,---,0.00,VWS V12.08,2013-06-15 16:52:00,
2013-06-15 12:53:00,80.7,62.0,29.96,WNW,288,5.0,13.0,53,0.00,,---,0.00,VWS V12.08,2013-06-15 16:53:00,
2013-06-15 12:54:00,80.7,62.0,29.95,West,275,7.0,13.0,53,0.00,,---,0.00,VWS V12.08,2013-06-15 16:54:00,
2013-06-15 12:55:00,80.8,61.5,29.96,NW,309,12.0,14.0,52,0.00,,---,0.00,VWS V12.08,2013-06-15 16:55:00,
2013-06-15 12:57:00,80.8,62.6,29.95,NW,304,8.0,14.0,54,0.00,,---,0.00,VWS V12.08,2013-06-15 16:57:00,
2013-06-15 12:58:00,80.9,62.2,29.95,WNW,288,9.0,14.0,53,0.00,,---,0.00,VWS V12.08,2013-06-15 16:58:00,
2013-06-15 12:59:00,81.1,62.9,29.95,WNW,285,8.0,14.0,54,0.00,,---,0.00,VWS V12.08,2013-06-15 16:59:00,
2013-06-15 13:00:00,81.2,62.5,29.95,West,281,11.0,14.0,53,0.00,,---,0.00,VWS V12.08,2013-06-15 17:00:00,
2013-06-15 13:02:00,81.4,62.6,29.95,WNW,294,13.0,15.0,53,0.00,,---,0.00,VWS V12.08,2013-06-15 17:02:00,
2013-06-15 13:03:00,81.5,61.7,29.95,WNW,300,12.0,15.0,51,0.00,,---,0.00,VWS V12.08,2013-06-15 17:03:00,
2013-06-15 13:04:00,81.5,61.7,29.95,WNW,296,5.0,15.0,51,0.00,,---,0.00,VWS V12.08,2013-06-15 17:04:00,
2013-06-15 13:05:00,81.5,61.7,29.95,WNW,299,7.0,15.0,51,0.00,,---,0.00,VWS V12.08,2013-06-15 17:05:00,
2013-06-15 13:07:00,81.5,61.1,29.95,NW,319,5.0,15.0,50,0.00,,---,0.00,VWS V12.08,2013-06-15 17:07:00,
2013-06-15 13:08:00,81.4,62.1,29.95,West,279,7.0,16.0,52,0.00,,---,0.00,VWS V12.08,2013-06-15 17:08:00,
2013-06-15 13:09:00,81.4,62.1,29.95,NW,314,7.0,16.0,52,0.00,,---,0.00,VWS V12.08,2013-06-15 17:09:00,
2013-06-15 13:10:00,81.3,60.3,29.95,WNW,300,9.0,16.0,49,0.00,,---,0.00,VWS V12.08,2013-06-15 17:10:00,
2013-06-15 13:12:00,81.3,60.9,29.94,NNW,340,10.0,11.0,50,0.00,,---,0.00,VWS V12.08,2013-06-15 17:12:00,
2013-06-15 13:13:00,81.2,60.2,29.95,NNW,342,6.0,11.0,49,0.00,,---,0.00,VWS V12.08,2013-06-15 17:13:00,
2013-06-15 13:14:00,81.2,59.7,29.95,NW,312,6.0,13.0,48,0.00,,---,0.00,VWS V12.08,2013-06-15 17:14:00,
2013-06-15 13:15:00,81.1,59.6,29.95,WNW,300,10.0,13.0,48,0.00,,---,0.00,VWS V12.08,2013-06-15 17:15:00,
2013-06-15 13:17:00,80.8,59.9,29.94,WNW,296,10.0,13.0,49,0.00,,---,0.00,VWS V12.08,2013-06-15 17:17:00,
2013-06-15 13:18:00,80.6,59.7,29.94,WNW,302,7.0,13.0,49,0.00,,---,0.00,VWS V12.08,2013-06-15 17:18:00,
2013-06-15 13:19:00,80.5,60.7,29.94,WNW,288,6.0,13.0,51,0.00,,---,0.00,VWS V12.08,2013-06-15 17:19:00,
2013-06-15 13:20:00,80.5,60.7,29.94,WNW,289,6.0,13.0,51,0.00,,---,0.00,VWS V12.08,2013-06-15 17:20:00,
2013-06-15 13:22:00,80.5,61.3,29.94,West,276,4.0,12.0,52,0.00,,---,0.00,VWS V12.08,2013-06-15 17:22:00,
2013-06-15 13:23:00,80.5,61.3,29.94,WNW,294,6.0,13.0,52,0.00,,---,0.00,VWS V12.08,2013-06-15 17:23:00,
2013-06-15 13:24:00,80.6,60.8,29.94,NW,314,9.0,13.0,51,0.00,,---,0.00,VWS V12.08,2013-06-15 17:24:00,
2013-06-15 13:25:00,80.7,60.3,29.94,NW,307,7.0,13.0,50,0.00,,---,0.00,VWS V12.08,2013-06-15 17:25:00,
2013-06-15 13:27:00,80.9,60.5,29.94,NNW,332,6.0,13.0,50,0.00,,---,0.00,VWS V12.08,2013-06-15 17:27:00,
2013-06-15 13:28:00,81.0,60.6,29.94,NW,309,6.0,13.0,50,0.00,,---,0.00,VWS V12.08,2013-06-15 17:28:00,
2013-06-15 13:30:00,81.2,61.4,29.95,WNW,292,11.0,13.0,51,0.00,,---,0.00,VWS V12.08,2013-06-15 17:30:00,
2013-06-15 13:31:00,81.3,60.9,29.95,NW,321,6.0,13.0,50,0.00,,---,0.00,VWS V12.08,2013-06-15 17:31:00,
2013-06-15 13:33:00,81.5,61.1,29.94,NW,320,14.0,14.0,50,0.00,,---,0.00,VWS V12.08,2013-06-15 17:33:00,
2013-06-15 13:35:00,81.6,59.4,29.94,NW,306,12.0,14.0,47,0.00,,---,0.00,VWS V12.08,2013-06-15 17:35:00,
2013-06-15 13:36:00,81.5,59.3,29.94,West,280,10.0,14.0,47,0.00,,---,0.00,VWS V12.08,2013-06-15 17:36:00,
2013-06-15 13:38:00,81.3,59.8,29.94,WNW,292,10.0,14.0,48,0.00,,---,0.00,VWS V12.08,2013-06-15 17:38:00,
2013-06-15 13:39:00,81.2,59.7,29.94,WNW,296,6.0,14.0,48,0.00,,---,0.00,VWS V12.08,2013-06-15 17:39:00,
2013-06-15 13:40:00,81.1,59.6,29.94,WNW,296,9.0,14.0,48,0.00,,---,0.00,VWS V12.08,2013-06-15 17:40:00,
2013-06-15 13:41:00,81.1,59.6,29.94,WNW,294,7.0,7.0,48,0.00,,---,0.00,VWS V12.08,2013-06-15 17:41:00,
2013-06-15 13:43:00,81.1,60.2,29.94,WNW,283,5.0,12.0,49,0.00,,---,0.00,VWS V12.08,2013-06-15 17:43:00,
2013-06-15 13:44:00,81.1,60.2,29.94,West,275,4.0,14.0,49,0.00,,---,0.00,VWS V12.08,2013-06-15 17:44:00,
2013-06-15 13:45:00,81.2,59.7,29.94,WNW,286,12.0,14.0,48,0.00,,---,0.00,VWS V12.08,2013-06-15 17:45:00,
2013-06-15 13:46:00,81.3,59.8,29.94,NW,307,14.0,16.0,48,0.00,,---,0.00,VWS V12.08,2013-06-15 17:46:00,
2013-06-15 13:48:00,81.3,59.2,29.94,NW,304,11.0,16.0,47,0.00,,---,0.00,VWS V12.08,2013-06-15 17:48:00,
2013-06-15 13:49:00,81.3,58.6,29.94,WNW,301,12.0,16.0,46,0.00,,---,0.00,VWS V12.08,2013-06-15 17:49:00,
2013-06-15 13:51:00,81.5,59.9,29.94,NW,313,7.0,18.0,48,0.00,,---,0.00,VWS V12.08,2013-06-15 17:51:00,
2013-06-15 13:53:00,81.9,60.9,29.93,WNW,288,10.0,14.0,49,0.00,,---,0.00,VWS V12.08,2013-06-15 17:53:00,
2013-06-15 13:54:00,82.0,61.0,29.93,WNW,292,11.0,14.0,49,0.00,,---,0.00,VWS V12.08,2013-06-15 17:54:00,
2013-06-15 13:56:00,82.4,59.6,29.93,WNW,293,16.0,17.0,46,0.00,,---,0.00,VWS V12.08,2013-06-15 17:56:00,
2013-06-15 13:58:00,82.4,59.0,29.93,NW,325,6.0,19.0,45,0.00,,---,0.00,VWS V12.08,2013-06-15 17:58:00,
2013-06-15 13:59:00,82.4,60.2,29.93,WNW,298,9.0,19.0,47,0.00,,---,0.00,VWS V12.08,2013-06-15 17:59:00,
2013-06-15 14:01:00,82.5,59.7,29.93,West,281,13.0,14.0,46,0.00,,---,0.00,VWS V12.08,2013-06-15 18:01:00,
2013-06-15 14:03:00,82.8,58.7,29.93,NW,306,11.0,14.0,44,0.00,,---,0.00,VWS V12.08,2013-06-15 18:03:00,
2013-06-15 14:04:00,82.9,59.4,29.93,WNW,298,10.0,15.0,45,0.00,,---,0.00,VWS V12.08,2013-06-15 18:04:00,
2013-06-15 14:06:00,83.1,60.2,29.93,NW,308,12.0,15.0,46,0.00,,---,0.00,VWS V12.08,2013-06-15 18:06:00,
2013-06-15 14:08:00,83.3,57.8,29.93,WNW,300,7.0,16.0,42,0.00,,---,0.00,VWS V12.08,2013-06-15 18:08:00,
2013-06-15 14:09:00,83.2,58.4,29.93,WNW,288,11.0,16.0,43,0.00,,---,0.00,VWS V12.08,2013-06-15 18:09:00,
2013-06-15 14:11:00,83.1,58.3,29.93,NW,313,5.0,10.0,43,0.00,,---,0.00,VWS V12.08,2013-06-15 18:11:00,
2013-06-15 14:12:00,83.0,58.9,29.93,NW,311,9.0,10.0,44,0.00,,---,0.00,VWS V12.08,2013-06-15 18:12:00,
2013-06-15 14:13:00,82.9,57.5,29.93,NW,308,14.0,17.0,42,0.00,,---,0.00,VWS V12.08,2013-06-15 18:13:00,
2013-06-15 14:14:00,82.7,57.3,29.93,WNW,294,9.0,17.0,42,0.00,,---,0.00,VWS V12.08,2013-06-15 18:14:00,
2013-06-15 14:16:00,82.5,57.8,29.93,NW,313,9.0,17.0,43,0.00,,---,0.00,VWS V12.08,2013-06-15 18:16:00,
2013-06-15 14:17:00,82.3,57.6,29.93,NNW,327,10.0,17.0,43,0.00,,---,0.00,VWS V12.08,2013-06-15 18:17:00,
2013-06-15 14:18:00,81.8,57.8,29.93,WNW,285,13.0,17.0,44,0.00,,---,0.00,VWS V12.08,2013-06-15 18:18:00,
2013-06-15 14:19:00,81.6,58.2,29.93,NW,312,6.0,17.0,45,0.00,,---,0.00,VWS V12.08,2013-06-15 18:19:00,
2013-06-15 14:21:00,81.4,58.0,29.93,WNW,286,9.0,17.0,45,0.00,,---,0.00,VWS V12.08,2013-06-15 18:21:00,
2013-06-15 14:22:00,81.3,59.2,29.93,WNW,296,12.0,17.0,47,0.00,,---,0.00,VWS V12.08,2013-06-15 18:22:00,
2013-06-15 14:24:00,81.2,59.7,29.93,WNW,286,7.0,17.0,48,0.00,,---,0.00,VWS V12.08,2013-06-15 18:24:00,
2013-06-15 14:25:00,81.3,59.2,29.93,WNW,285,9.0,17.0,47,0.00,,---,0.00,VWS V12.08,2013-06-15 18:25:00,
2013-06-15 14:26:00,81.3,59.2,29.93,NW,309,12.0,17.0,47,0.00,,---,0.00,VWS V12.08,2013-06-15 18:26:00,
2013-06-15 14:27:00,81.2,59.1,29.93,WNW,300,9.0,17.0,47,0.00,,---,0.00,VWS V12.08,2013-06-15 18:27:00,
2013-06-15 14:30:00,81.0,58.9,29.93,WNW,293,5.0,17.0,47,0.00,,---,0.00,VWS V12.08,2013-06-15 18:30:00,
2013-06-15 14:31:00,81.0,58.9,29.93,WNW,298,7.0,17.0,47,0.00,,---,0.00,VWS V12.08,2013-06-15 18:31:00,
2013-06-15 14:32:00,81.1,59.6,29.93,NW,313,4.0,10.0,48,0.00,,---,0.00,VWS V12.08,2013-06-15 18:32:00,
2013-06-15 14:35:00,81.7,60.1,29.93,NNW,331,11.0,13.0,48,0.00,,---,0.00,VWS V12.08,2013-06-15 18:35:00,
2013-06-15 14:36:00,81.8,60.2,29.93,NW,313,9.0,13.0,48,0.00,,---,0.00,VWS V12.08,2013-06-15 18:36:00,
2013-06-15 14:37:00,82.1,59.3,29.93,NW,319,10.0,18.0,46,0.00,,---,0.00,VWS V12.08,2013-06-15 18:37:00,
2013-06-15 14:40:00,82.1,58.0,29.93,NW,308,4.0,18.0,44,0.00,,---,0.00,VWS V12.08,2013-06-15 18:40:00,
2013-06-15 14:41:00,82.1,58.0,29.93,NW,309,12.0,18.0,44,0.00,,---,0.00,VWS V12.08,2013-06-15 18:41:00,
2013-06-15 14:42:00,82.1,58.0,29.92,NW,306,9.0,13.0,44,0.00,,---,0.00,VWS V12.08,2013-06-15 18:42:00,
2013-06-15 14:45:00,82.0,58.6,29.92,NW,305,10.0,19.0,45,0.00,,---,0.00,VWS V12.08,2013-06-15 18:45:00,
2013-06-15 14:46:00,82.0,58.6,29.92,NW,311,3.0,19.0,45,0.00,,---,0.00,VWS V12.08,2013-06-15 18:46:00,
2013-06-15 14:47:00,82.0,59.2,29.92,WNW,292,10.0,19.0,46,0.00,,---,0.00,VWS V12.08,2013-06-15 18:47:00,
2013-06-15 14:50:00,82.6,60.3,29.93,NW,325,12.0,19.0,47,0.00,,---,0.00,VWS V12.08,2013-06-15 18:50:00,
2013-06-15 14:51:00,82.8,58.7,29.93,WNW,292,6.0,19.0,44,0.00,,---,0.00,VWS V12.08,2013-06-15 18:51:00,
2013-06-15 14:52:00,82.9,59.4,29.93,NW,318,7.0,14.0,45,0.00,,---,0.00,VWS V12.08,2013-06-15 18:52:00,
2013-06-15 14:55:00,83.1,59.0,29.92,NW,308,9.0,16.0,44,0.00,,---,0.00,VWS V12.08,2013-06-15 18:55:00,
2013-06-15 14:56:00,83.1,59.6,29.93,NNW,341,6.0,16.0,45,0.00,,---,0.00,VWS V12.08,2013-06-15 18:56:00,
2013-06-15 14:57:00,83.1,59.0,29.92,North,350,14.0,16.0,44,0.00,,---,0.00,VWS V12.08,2013-06-15 18:57:00,
2013-06-15 15:00:00,82.8,58.0,29.93,NW,310,15.0,21.0,43,0.00,,---,0.00,VWS V12.08,2013-06-15 19:00:00,
2013-06-15 15:01:00,82.7,58.0,29.93,WNW,294,14.0,14.0,43,0.00,,---,0.00,VWS V12.08,2013-06-15 19:01:00,
2013-06-15 15:02:00,82.3,57.6,29.93,NW,309,6.0,14.0,43,0.00,,---,0.00,VWS V12.08,2013-06-15 19:02:00,
2013-06-15 15:05:00,81.7,57.7,29.93,WNW,302,6.0,14.0,44,0.00,,---,0.00,VWS V12.08,2013-06-15 19:05:00,
2013-06-15 15:06:00,81.6,58.2,29.93,WNW,298,5.0,14.0,45,0.00,,---,0.00,VWS V12.08,2013-06-15 19:06:00,
2013-06-15 15:07:00,81.6,58.2,29.93,NNW,329,5.0,14.0,45,0.00,,---,0.00,VWS V12.08,2013-06-15 19:07:00,
2013-06-15 15:11:00,81.7,58.9,29.93,WNW,298,12.0,12.0,46,0.00,,---,0.00,VWS V12.08,2013-06-15 19:11:00,
2013-06-15 15:12:00,81.8,59.0,29.93,NW,317,13.0,15.0,46,0.00,,---,0.00,VWS V12.08,2013-06-15 19:12:00,
2013-06-15 15:13:00,81.8,59.0,29.93,NNW,346,6.0,15.0,46,0.00,,---,0.00,VWS V12.08,2013-06-15 19:13:00,
2013-06-15 15:16:00,82.1,58.0,29.93,NNW,332,6.0,16.0,44,0.00,,---,0.00,VWS V12.08,2013-06-15 19:16:00,
2013-06-15 15:17:00,82.1,58.7,29.93,NW,312,10.0,16.0,45,0.00,,---,0.00,VWS V12.08,2013-06-15 19:17:00,
2013-06-15 15:18:00,82.1,58.7,29.93,NW,307,6.0,16.0,45,0.00,,---,0.00,VWS V12.08,2013-06-15 19:18:00,
2013-06-15 15:21:00,82.2,59.4,29.93,NNW,328,11.0,14.0,46,0.00,,---,0.00,VWS V12.08,2013-06-15 19:21:00,
2013-06-15 15:22:00,82.2,58.1,29.93,NW,311,5.0,14.0,44,0.00,,---,0.00,VWS V12.08,2013-06-15 19:22:00,
2013-06-15 15:23:00,82.2,58.1,29.93,WNW,300,5.0,14.0,44,0.00,,---,0.00,VWS V12.08,2013-06-15 19:23:00,
2013-06-15 15:27:00,82.2,58.8,29.93,NW,315,7.0,14.0,45,0.00,,---,0.00,VWS V12.08,2013-06-15 19:27:00,
2013-06-15 15:28:00,82.2,58.8,29.93,NW,310,7.0,14.0,45,0.00,,---,0.00,VWS V12.08,2013-06-15 19:28:00,
2013-06-15 15:32:00,82.4,58.3,29.93,WNW,298,10.0,15.0,44,0.00,,---,0.00,VWS V12.08,2013-06-15 19:32:00,
2013-06-15 15:33:00,82.4,59.0,29.93,WNW,297,6.0,15.0,45,0.00,,---,0.00,VWS V12.08,2013-06-15 19:33:00,
2013-06-15 15:37:00,82.3,58.2,29.93,NW,309,11.0,15.0,44,0.00,,---,0.00,VWS V12.08,2013-06-15 19:37:00,
2013-06-15 15:38:00,82.1,58.0,29.93,NW,319,6.0,15.0,44,0.00,,---,0.00,VWS V12.08,2013-06-15 19:38:00,
2013-06-15 15:42:00,81.8,57.8,29.93,WNW,295,11.0,17.0,44,0.00,,---,0.00,VWS V12.08,2013-06-15 19:42:00,
2013-06-15 15:43:00,81.8,57.8,29.93,WNW,291,11.0,17.0,44,0.00,,---,0.00,VWS V12.08,2013-06-15 19:43:00,
2013-06-15 15:47:00,81.6,58.2,29.93,WNW,289,7.0,17.0,45,0.00,,---,0.00,VWS V12.08,2013-06-15 19:47:00,
2013-06-15 15:48:00,81.6,58.2,29.93,NW,317,7.0,17.0,45,0.00,,---,0.00,VWS V12.08,2013-06-15 19:48:00,
2013-06-15 15:52:00,81.5,57.5,29.92,WNW,286,9.0,14.0,44,0.00,,---,0.00,VWS V12.08,2013-06-15 19:52:00,
2013-06-15 15:53:00,81.5,57.5,29.92,WNW,286,6.0,14.0,44,0.00,,---,0.00,VWS V12.08,2013-06-15 19:53:00,
2013-06-15 15:58:00,81.1,57.8,29.92,NW,304,6.0,14.0,45,0.00,,---,0.00,VWS V12.08,2013-06-15 19:58:00,
2013-06-15 16:03:00,81.1,57.2,29.92,WNW,299,8.0,12.0,44,0.00,,---,0.00,VWS V12.08,2013-06-15 20:03:00,
2013-06-15 16:08:00,80.9,57.0,29.92,WNW,284,11.0,15.0,44,0.00,,---,0.00,VWS V12.08,2013-06-15 20:08:00,
2013-06-15 16:09:00,80.9,57.6,29.92,WNW,296,7.0,15.0,45,0.00,,---,0.00,VWS V12.08,2013-06-15 20:09:00,
2013-06-15 16:13:00,81.0,57.7,29.92,WNW,302,6.0,15.0,45,0.00,,---,0.00,VWS V12.08,2013-06-15 20:13:00,
2013-06-15 16:14:00,81.0,57.7,29.92,NW,315,11.0,15.0,45,0.00,,---,0.00,VWS V12.08,2013-06-15 20:14:00,
2013-06-15 16:18:00,81.0,57.7,29.91,NW,315,4.0,16.0,45,0.00,,---,0.00,VWS V12.08,2013-06-15 20:18:00,
2013-06-15 16:19:00,81.0,57.7,29.91,NNW,327,11.0,16.0,45,0.00,,---,0.00,VWS V12.08,2013-06-15 20:19:00,
2013-06-15 16:23:00,81.2,57.9,29.91,West,271,7.0,13.0,45,0.00,,---,0.00,VWS V12.08,2013-06-15 20:23:00,
2013-06-15 16:24:00,81.2,57.9,29.91,West,274,5.0,13.0,45,0.00,,---,0.00,VWS V12.08,2013-06-15 20:24:00,
2013-06-15 16:28:00,81.3,57.3,29.91,West,273,13.0,15.0,44,0.00,,---,0.00,VWS V12.08,2013-06-15 20:28:00,
2013-06-15 16:29:00,81.3,57.3,29.91,WNW,294,11.0,15.0,44,0.00,,---,0.00,VWS V12.08,2013-06-15 20:29:00,
2013-06-15 16:33:00,81.1,57.8,29.91,West,281,6.0,13.0,45,0.00,,---,0.00,VWS V12.08,2013-06-15 20:33:00,
2013-06-15 16:34:00,81.1,57.8,29.91,WNW,287,6.0,13.0,45,0.00,,---,0.00,VWS V12.08,2013-06-15 20:34:00,
2013-06-15 16:35:00,81.1,58.4,29.91,West,280,11.0,13.0,46,0.00,,---,0.00,VWS V12.08,2013-06-15 20:35:00,
2013-06-15 16:39:00,81.0,59.5,29.91,WNW,283,7.0,14.0,48,0.00,,---,0.00,VWS V12.08,2013-06-15 20:39:00,
2013-06-15 16:40:00,80.9,58.8,29.91,West,281,4.0,14.0,47,0.00,,---,0.00,VWS V12.08,2013-06-15 20:40:00,
2013-06-15 16:44:00,80.7,57.4,29.91,NW,310,4.0,11.0,45,0.00,,---,0.00,VWS V12.08,2013-06-15 20:44:00,
2013-06-15 16:45:00,80.7,58.0,29.91,NW,310,2.0,11.0,46,0.00,,---,0.00,VWS V12.08,2013-06-15 20:45:00,
2013-06-15 16:49:00,80.7,58.0,29.91,NW,311,6.0,11.0,46,0.00,,---,0.00,VWS V12.08,2013-06-15 20:49:00,
2013-06-15 16:50:00,80.8,59.3,29.91,WNW,287,14.0,14.0,48,0.00,,---,0.00,VWS V12.08,2013-06-15 20:50:00,
2013-06-15 16:54:00,80.8,58.7,29.91,West,273,7.0,16.0,47,0.00,,---,0.00,VWS V12.08,2013-06-15 20:54:00,
2013-06-15 16:55:00,80.8,58.7,29.91,West,271,13.0,16.0,47,0.00,,---,0.00,VWS V12.08,2013-06-15 20:55:00,
2013-06-15 16:59:00,80.9,58.2,29.91,WNW,302,10.0,16.0,46,0.00,,---,0.00,VWS V12.08,2013-06-15 20:59:00,
2013-06-15 17:00:00,80.8,58.1,29.91,WNW,302,13.0,16.0,46,0.00,,---,0.00,VWS V12.08,2013-06-15 21:00:00,
2013-06-15 17:05:00,80.5,57.8,29.91,WNW,291,6.0,10.0,46,0.00,,---,0.00,VWS V12.08,2013-06-15 21:05:00,
2013-06-15 17:06:00,80.5,58.4,29.91,WNW,286,6.0,11.0,47,0.00,,---,0.00,VWS V12.08,2013-06-15 21:06:00,
2013-06-15 17:10:00,80.4,59.5,29.91,West,262,14.0,17.0,49,0.00,,---,0.00,VWS V12.08,2013-06-15 21:10:00,
2013-06-15 17:11:00,80.4,58.9,29.91,WNW,294,11.0,17.0,48,0.00,,---,0.00,VWS V12.08,2013-06-15 21:11:00,
2013-06-15 17:15:00,80.4,58.3,29.91,West,274,9.0,18.0,47,0.00,,---,0.00,VWS V12.08,2013-06-15 21:15:00,
2013-06-15 17:16:00,80.4,58.3,29.91,West,266,17.0,18.0,47,0.00,,---,0.00,VWS V12.08,2013-06-15 21:16:00,
2013-06-15 17:20:00,80.3,58.2,29.91,West,273,13.0,18.0,47,0.00,,---,0.00,VWS V12.08,2013-06-15 21:20:00,
2013-06-15 17:21:00,80.3,58.2,29.91,West,263,7.0,18.0,47,0.00,,---,0.00,VWS V12.08,2013-06-15 21:21:00,
2013-06-15 17:25:00,80.3,58.8,29.91,WSW,248,11.0,18.0,48,0.00,,---,0.00,VWS V12.08,2013-06-15 21:25:00,
2013-06-15 17:26:00,80.3,59.4,29.91,SW,225,10.0,18.0,49,0.00,,---,0.00,VWS V12.08,2013-06-15 21:26:00,
2013-06-15 17:30:00,80.3,58.8,29.91,West,269,7.0,18.0,48,0.00,,---,0.00,VWS V12.08,2013-06-15 21:30:00,
2013-06-15 17:31:00,80.3,58.8,29.91,West,269,16.0,19.0,48,0.00,,---,0.00,VWS V12.08,2013-06-15 21:31:00,
2013-06-15 17:35:00,80.2,58.8,29.91,West,263,9.0,17.0,48,0.00,,---,0.00,VWS V12.08,2013-06-15 21:35:00,
2013-06-15 17:36:00,80.2,58.8,29.91,West,259,12.0,17.0,48,0.00,,---,0.00,VWS V12.08,2013-06-15 21:36:00,
2013-06-15 17:37:00,80.2,58.8,29.91,West,261,10.0,17.0,48,0.00,,---,0.00,VWS V12.08,2013-06-15 21:37:00,
2013-06-15 17:40:00,80.0,58.6,29.91,WSW,248,10.0,17.0,48,0.00,,---,0.00,VWS V12.08,2013-06-15 21:40:00,
2013-06-15 17:41:00,79.9,58.5,29.91,West,277,10.0,12.0,48,0.00,,---,0.00,VWS V12.08,2013-06-15 21:41:00,
2013-06-15 17:42:00,79.9,58.5,29.91,West,262,6.0,12.0,48,0.00,,---,0.00,VWS V12.08,2013-06-15 21:42:00,
2013-06-15 17:45:00,79.8,59.0,29.91,West,262,14.0,18.0,49,0.00,,---,0.00,VWS V12.08,2013-06-15 21:45:00,
2013-06-15 17:46:00,79.7,58.9,29.91,West,262,6.0,18.0,49,0.00,,---,0.00,VWS V12.08,2013-06-15 21:46:00,
2013-06-15 17:47:00,79.7,58.3,29.91,WSW,247,9.0,18.0,48,0.00,,---,0.00,VWS V12.08,2013-06-15 21:47:00,
2013-06-15 17:51:00,79.7,58.9,29.92,West,267,5.0,18.0,49,0.00,,---,0.00,VWS V12.08,2013-06-15 21:51:00,
2013-06-15 17:52:00,79.7,58.9,29.91,NW,309,10.0,15.0,49,0.00,,---,0.00,VWS V12.08,2013-06-15 21:52:00,
2013-06-15 17:56:00,79.7,58.9,29.91,WSW,254,7.0,17.0,49,0.00,,---,0.00,VWS V12.08,2013-06-15 21:56:00,
2013-06-15 17:57:00,79.7,58.9,29.92,WSW,251,12.0,17.0,49,0.00,,---,0.00,VWS V12.08,2013-06-15 21:57:00,
2013-06-15 18:01:00,79.8,59.5,29.92,WNW,290,6.0,6.0,50,0.00,,---,0.00,VWS V12.08,2013-06-15 22:01:00,
2013-06-15 18:02:00,79.8,59.5,29.92,WSW,252,11.0,15.0,50,0.00,,---,0.00,VWS V12.08,2013-06-15 22:02:00,
2013-06-15 18:06:00,79.7,58.9,29.92,WNW,283,4.0,19.0,49,0.00,,---,0.00,VWS V12.08,2013-06-15 22:06:00,
2013-06-15 18:07:00,79.7,58.9,29.92,West,278,10.0,19.0,49,0.00,,---,0.00,VWS V12.08,2013-06-15 22:07:00,
2013-06-15 18:08:00,79.7,58.9,29.92,West,276,11.0,19.0,49,0.00,,---,0.00,VWS V12.08,2013-06-15 22:08:00,
2013-06-15 18:11:00,79.7,59.4,29.92,West,274,12.0,19.0,50,0.00,,---,0.00,VWS V12.08,2013-06-15 22:11:00,
2013-06-15 18:12:00,79.6,58.8,29.92,West,275,5.0,12.0,49,0.00,,---,0.00,VWS V12.08,2013-06-15 22:12:00,
2013-06-15 18:13:00,79.6,58.8,29.92,SW,230,9.0,12.0,49,0.00,,---,0.00,VWS V12.08,2013-06-15 22:13:00,
2013-06-15 18:16:00,79.4,59.2,29.92,SW,215,8.0,14.0,50,0.00,,---,0.00,VWS V12.08,2013-06-15 22:16:00,
2013-06-15 18:17:00,79.4,59.2,29.92,WSW,247,13.0,14.0,50,0.00,,---,0.00,VWS V12.08,2013-06-15 22:17:00,
2013-06-15 18:18:00,78.6,60.6,29.92,WSW,241,9.0,17.0,54,0.00,,---,0.00,VWS V12.08,2013-06-15 22:18:00,
2013-06-15 18:21:00,76.3,61.9,29.92,SW,222,12.0,18.0,61,0.00,,---,0.00,VWS V12.08,2013-06-15 22:21:00,
2013-06-15 18:22:00,75.9,62.0,29.92,SW,234,14.0,18.0,62,0.00,,---,0.00,VWS V12.08,2013-06-15 22:22:00,
2013-06-15 18:23:00,75.0,61.6,29.92,SW,223,7.0,18.0,63,0.00,,---,0.00,VWS V12.08,2013-06-15 22:23:00,
2013-06-15 18:26:00,73.6,62.0,29.92,SW,223,13.0,18.0,67,0.00,,---,0.00,VWS V12.08,2013-06-15 22:26:00,
2013-06-15 18:27:00,73.3,62.1,29.92,SW,215,14.0,18.0,68,0.00,,---,0.00,VWS V12.08,2013-06-15 22:27:00,
2013-06-15 18:28:00,72.9,61.7,29.92,SW,235,10.0,18.0,68,0.00,,---,0.00,VWS V12.08,2013-06-15 22:28:00,
2013-06-15 18:31:00,72.1,61.4,29.92,SW,219,16.0,16.0,69,0.00,,---,0.00,VWS V12.08,2013-06-15 22:31:00,
2013-06-15 18:32:00,72.1,61.4,29.92,SW,229,13.0,17.0,69,0.00,,---,0.00,VWS V12.08,2013-06-15 22:32:00,
2013-06-15 18:33:00,71.9,61.6,29.92,SW,225,9.0,18.0,70,0.00,,---,0.00,VWS V12.08,2013-06-15 22:33:00,
2013-06-15 18:36:00,71.4,61.9,29.92,SSW,205,12.0,18.0,72,0.00,,---,0.00,VWS V12.08,2013-06-15 22:36:00,
2013-06-15 18:37:00,71.3,61.8,29.92,SW,219,12.0,18.0,72,0.00,,---,0.00,VWS V12.08,2013-06-15 22:37:00,
2013-06-15 18:38:00,71.2,61.7,29.92,SSW,212,8.0,18.0,72,0.00,,---,0.00,VWS V12.08,2013-06-15 22:38:00,
2013-06-15 18:41:00,71.0,61.5,29.92,SW,232,16.0,16.0,72,0.00,,---,0.00,VWS V12.08,2013-06-15 22:41:00,
2013-06-15 18:42:00,71.0,61.5,29.92,SSW,209,10.0,16.0,72,0.00,,---,0.00,VWS V12.08,2013-06-15 22:42:00,
2013-06-15 18:43:00,71.0,61.5,29.92,SW,218,11.0,16.0,72,0.00,,---,0.00,VWS V12.08,2013-06-15 22:43:00,
2013-06-15 18:46:00,70.9,61.4,29.93,SW,229,9.0,16.0,72,0.00,,---,0.00,VWS V12.08,2013-06-15 22:46:00,
2013-06-15 18:47:00,70.9,61.4,29.93,WSW,239,10.0,16.0,72,0.00,,---,0.00,VWS V12.08,2013-06-15 22:47:00,
2013-06-15 18:48:00,70.9,61.4,29.93,SSW,209,13.0,16.0,72,0.00,,---,0.00,VWS V12.08,2013-06-15 22:48:00,
2013-06-15 18:51:00,70.9,61.4,29.93,SSW,211,9.0,14.0,72,0.00,,---,0.00,VWS V12.08,2013-06-15 22:51:00,
2013-06-15 18:52:00,70.9,61.4,29.93,SW,217,12.0,15.0,72,0.00,,---,0.00,VWS V12.08,2013-06-15 22:52:00,
2013-06-15 18:53:00,70.8,61.3,29.93,SW,216,9.0,15.0,72,0.00,,---,0.00,VWS V12.08,2013-06-15 22:53:00,
2013-06-15 18:56:00,70.8,60.9,29.93,SSW,204,11.0,15.0,71,0.00,,---,0.00,VWS V12.08,2013-06-15 22:56:00,
2013-06-15 18:58:00,70.9,61.0,29.93,SW,219,13.0,15.0,71,0.00,,---,0.00,VWS V12.08,2013-06-15 22:58:00,
2013-06-15 18:59:00,70.9,60.6,29.93,SW,223,10.0,15.0,70,0.00,,---,0.00,VWS V12.08,2013-06-15 22:59:00,
2013-06-15 19:01:00,71.0,60.7,29.93,SW,216,11.0,13.0,70,0.00,,---,0.00,VWS V12.08,2013-06-15 23:01:00,
2013-06-15 19:03:00,71.0,60.7,29.93,SSW,205,11.0,14.0,70,0.00,,---,0.00,VWS V12.08,2013-06-15 23:03:00,
2013-06-15 19:04:00,71.0,60.7,29.93,SW,221,10.0,14.0,70,0.00,,---,0.00,VWS V12.08,2013-06-15 23:04:00,
2013-06-15 19:06:00,71.1,60.4,29.93,SW,214,14.0,17.0,69,0.00,,---,0.00,VWS V12.08,2013-06-15 23:06:00,
2013-06-15 19:08:00,71.1,60.4,29.93,SSW,202,12.0,17.0,69,0.00,,---,0.00,VWS V12.08,2013-06-15 23:08:00,
2013-06-15 19:09:00,71.1,60.4,29.93,SW,232,11.0,17.0,69,0.00,,---,0.00,VWS V12.08,2013-06-15 23:09:00,
2013-06-15 19:11:00,71.0,60.7,29.93,WSW,242,11.0,11.0,70,0.00,,---,0.00,VWS V12.08,2013-06-15 23:11:00,
2013-06-15 19:13:00,71.0,60.7,29.93,SW,222,10.0,15.0,70,0.00,,---,0.00,VWS V12.08,2013-06-15 23:13:00,
2013-06-15 19:14:00,70.9,60.6,29.93,SW,215,14.0,15.0,70,0.00,,---,0.00,VWS V12.08,2013-06-15 23:14:00,
2013-06-15 19:16:00,70.8,60.1,29.93,SW,219,14.0,15.0,69,0.00,,---,0.00,VWS V12.08,2013-06-15 23:16:00,
2013-06-15 19:18:00,70.8,60.1,29.93,WSW,248,11.0,15.0,69,0.00,,---,0.00,VWS V12.08,2013-06-15 23:18:00,
2013-06-15 19:19:00,70.8,60.1,29.93,SSW,207,11.0,16.0,69,0.00,,---,0.00,VWS V12.08,2013-06-15 23:19:00,
2013-06-15 19:21:00,70.7,60.5,29.93,SW,218,9.0,13.0,70,0.00,,---,0.00,VWS V12.08,2013-06-15 23:21:00,
2013-06-15 19:23:00,70.6,60.3,29.93,WSW,258,10.0,15.0,70,0.00,,---,0.00,VWS V12.08,2013-06-15 23:23:00,
2013-06-15 19:24:00,70.6,60.3,29.93,SW,218,11.0,15.0,70,0.00,,---,0.00,VWS V12.08,2013-06-15 23:24:00,
2013-06-15 19:25:00,70.6,60.3,29.93,SW,234,13.0,15.0,70,0.00,,---,0.00,VWS V12.08,2013-06-15 23:25:00,
2013-06-15 19:27:00,70.5,60.7,29.93,SW,234,6.0,15.0,71,0.00,,---,0.00,VWS V12.08,2013-06-15 23:27:00,
2013-06-15 19:28:00,70.4,60.6,29.93,SW,219,12.0,15.0,71,0.00,,---,0.00,VWS V12.08,2013-06-15 23:28:00,
2013-06-15 19:29:00,70.4,60.6,29.93,SW,214,11.0,15.0,71,0.00,,---,0.00,VWS V12.08,2013-06-15 23:29:00,
2013-06-15 19:30:00,70.4,60.6,29.93,SW,221,12.0,16.0,71,0.00,,---,0.00,VWS V12.08,2013-06-15 23:30:00,
2013-06-15 19:32:00,70.3,60.5,29.93,SW,223,10.0,17.0,71,0.00,,---,0.00,VWS V12.08,2013-06-15 23:32:00,
2013-06-15 19:34:00,70.2,60.4,29.93,SW,224,14.0,17.0,71,0.00,,---,0.00,VWS V12.08,2013-06-15 23:34:00,
2013-06-15 19:35:00,70.2,60.4,29.93,SW,223,10.0,17.0,71,0.00,,---,0.00,VWS V12.08,2013-06-15 23:35:00,
2013-06-15 19:37:00,70.2,60.4,29.93,SW,223,9.0,17.0,71,0.00,,---,0.00,VWS V12.08,2013-06-15 23:37:00,
2013-06-15 19:39:00,70.2,60.4,29.93,SW,235,11.0,17.0,71,0.00,,---,0.00,VWS V12.08,2013-06-15 23:39:00,
2013-06-15 19:40:00,70.2,60.4,29.93,SW,218,10.0,17.0,71,0.00,,---,0.00,VWS V12.08,2013-06-15 23:40:00,
2013-06-15 19:42:00,70.1,60.3,29.93,SW,232,11.0,13.0,71,0.00,,---,0.00,VWS V12.08,2013-06-15 23:42:00,
2013-06-15 19:44:00,70.1,60.3,29.93,SW,230,11.0,15.0,71,0.00,,---,0.00,VWS V12.08,2013-06-15 23:44:00,
2013-06-15 19:45:00,70.1,60.3,29.93,SW,219,9.0,15.0,71,0.00,,---,0.00,VWS V12.08,2013-06-15 23:45:00,
2013-06-15 19:47:00,70.0,60.6,29.94,SW,217,9.0,15.0,72,0.00,,---,0.00,VWS V12.08,2013-06-15 23:47:00,
2013-06-15 19:49:00,70.0,60.6,29.93,SW,223,9.0,15.0,72,0.00,,---,0.00,VWS V12.08,2013-06-15 23:49:00,
2013-06-15 19:50:00,70.0,60.6,29.93,SSW,199,9.0,17.0,72,0.00,,---,0.00,VWS V12.08,2013-06-15 23:50:00,
2013-06-15 19:53:00,69.9,60.5,29.93,SW,215,11.0,14.0,72,0.00,,---,0.00,VWS V12.08,2013-06-15 23:53:00,
2013-06-15 19:54:00,69.9,60.9,29.93,SW,229,13.0,15.0,73,0.00,,---,0.00,VWS V12.08,2013-06-15 23:54:00,
2013-06-15 19:55:00,69.9,60.9,29.93,SW,230,6.0,15.0,73,0.00,,---,0.00,VWS V12.08,2013-06-15 23:55:00,
2013-06-15 19:58:00,69.8,60.8,29.93,SSW,206,11.0,15.0,73,0.00,,---,0.00,VWS V12.08,2013-06-15 23:58:00,
2013-06-15 19:59:00,69.8,60.8,29.93,SSW,211,12.0,15.0,73,0.00,,---,0.00,VWS V12.08,2013-06-15 23:59:00,
2013-06-15 20:00:00,69.8,60.8,29.93,SW,229,14.0,15.0,73,0.00,,---,0.00,VWS V12.08,2013-06-16 00:00:00,
2013-06-15 20:03:00,69.7,61.0,29.93,SW,232,9.0,14.0,74,0.00,,---,0.00,VWS V12.08,2013-06-16 00:03:00,
2013-06-15 20:04:00,69.7,61.0,29.93,SSW,210,12.0,14.0,74,0.00,,---,0.00,VWS V12.08,2013-06-16 00:04:00,
2013-06-15 20:05:00,69.7,61.4,29.93,SW,225,7.0,14.0,75,0.00,,---,0.00,VWS V12.08,2013-06-16 00:05:00,
2013-06-15 20:08:00,69.6,61.3,29.93,SW,233,6.0,15.0,75,0.00,,---,0.00,VWS V12.08,2013-06-16 00:08:00,
2013-06-15 20:09:00,69.6,61.3,29.93,SW,224,9.0,15.0,75,0.00,,---,0.00,VWS V12.08,2013-06-16 00:09:00,
2013-06-15 20:10:00,69.6,61.3,29.94,SW,219,6.0,15.0,75,0.00,,---,0.00,VWS V12.08,2013-06-16 00:10:00,
2013-06-15 20:13:00,69.6,61.7,29.93,SW,226,12.0,13.0,76,0.00,,---,0.00,VWS V12.08,2013-06-16 00:13:00,
2013-06-15 20:14:00,69.6,61.7,29.93,SW,228,9.0,13.0,76,0.00,,---,0.00,VWS V12.08,2013-06-16 00:14:00,
2013-06-15 20:15:00,69.6,61.7,29.94,WSW,243,6.0,13.0,76,0.00,,---,0.00,VWS V12.08,2013-06-16 00:15:00,
2013-06-15 20:18:00,69.5,61.6,29.93,SSW,213,6.0,14.0,76,0.00,,---,0.00,VWS V12.08,2013-06-16 00:18:00,
2013-06-15 20:19:00,69.5,62.0,29.93,SW,217,13.0,14.0,77,0.00,,---,0.00,VWS V12.08,2013-06-16 00:19:00,
2013-06-15 20:20:00,69.5,62.0,29.93,SW,215,7.0,14.0,77,0.00,,---,0.00,VWS V12.08,2013-06-16 00:20:00,
2013-06-15 20:23:00,69.4,61.9,29.94,SW,217,10.0,13.0,77,0.00,,---,0.00,VWS V12.08,2013-06-16 00:23:00,
2013-06-15 20:25:00,69.3,61.8,29.94,SW,226,6.0,13.0,77,0.00,,---,0.00,VWS V12.08,2013-06-16 00:25:00,
2013-06-15 20:26:00,69.2,62.1,29.94,SW,225,6.0,14.0,78,0.00,,---,0.00,VWS V12.08,2013-06-16 00:26:00,
2013-06-15 20:28:00,69.1,62.0,29.93,SW,225,10.0,14.0,78,0.00,,---,0.00,VWS V12.08,2013-06-16 00:28:00,
2013-06-15 20:30:00,69.0,61.9,29.94,SW,232,6.0,14.0,78,0.00,,---,0.00,VWS V12.08,2013-06-16 00:30:00,
2013-06-15 20:31:00,69.0,61.9,29.94,SW,228,9.0,14.0,78,0.00,,---,0.00,VWS V12.08,2013-06-16 00:31:00,
2013-06-15 20:33:00,68.9,61.8,29.94,SW,232,7.0,12.0,78,0.00,,---,0.00,VWS V12.08,2013-06-16 00:33:00,
2013-06-15 20:35:00,68.8,62.0,29.93,SW,216,12.0,12.0,79,0.00,,---,0.00,VWS V12.08,2013-06-16 00:35:00,
2013-06-15 20:36:00,68.8,62.0,29.93,SW,229,7.0,12.0,79,0.00,,---,0.00,VWS V12.08,2013-06-16 00:36:00,
2013-06-15 20:38:00,68.7,61.9,29.94,SW,217,10.0,15.0,79,0.00,,---,0.00,VWS V12.08,2013-06-16 00:38:00,
2013-06-15 20:40:00,68.7,61.9,29.94,SSW,211,11.0,15.0,79,0.00,,---,0.00,VWS V12.08,2013-06-16 00:40:00,
2013-06-15 20:41:00,68.7,61.9,29.94,SW,229,7.0,15.0,79,0.00,,---,0.00,VWS V12.08,2013-06-16 00:41:00,
2013-06-15 20:43:00,68.6,62.2,29.94,SW,225,11.0,13.0,80,0.00,,---,0.00,VWS V12.08,2013-06-16 00:43:00,
2013-06-15 20:45:00,68.5,62.1,29.94,SW,228,11.0,14.0,80,0.00,,---,0.00,VWS V12.08,2013-06-16 00:45:00,
2013-06-15 20:46:00,68.5,62.1,29.94,SW,229,5.0,14.0,80,0.00,,---,0.00,VWS V12.08,2013-06-16 00:46:00,
2013-06-15 20:48:00,68.5,62.1,29.94,WSW,237,8.0,14.0,80,0.00,,---,0.00,VWS V12.08,2013-06-16 00:48:00,
2013-06-15 20:50:00,68.4,62.3,29.94,SW,232,6.0,14.0,81,0.00,,---,0.00,VWS V12.08,2013-06-16 00:50:00,
2013-06-15 20:51:00,68.4,62.3,29.94,SW,236,11.0,13.0,81,0.00,,---,0.00,VWS V12.08,2013-06-16 00:51:00,
2013-06-15 20:53:00,68.3,62.2,29.94,SW,227,6.0,14.0,81,0.00,,---,0.00,VWS V12.08,2013-06-16 00:53:00,
2013-06-15 20:56:00,68.3,62.2,29.94,SW,233,5.0,14.0,81,0.00,,---,0.00,VWS V12.08,2013-06-16 00:56:00,
2013-06-15 20:57:00,68.3,62.2,29.94,WSW,254,5.0,14.0,81,0.00,,---,0.00,VWS V12.08,2013-06-16 00:57:00,
2013-06-15 20:58:00,68.3,62.6,29.94,SSW,207,9.0,14.0,82,0.00,,---,0.00,VWS V12.08,2013-06-16 00:58:00,
2013-06-15 21:01:00,68.2,62.5,29.94,SW,220,10.0,10.0,82,0.00,,---,0.00,VWS V12.08,2013-06-16 01:01:00,
2013-06-15 21:02:00,68.2,62.5,29.94,SW,215,9.0,12.0,82,0.00,,---,0.00,VWS V12.08,2013-06-16 01:02:00,
2013-06-15 21:03:00,68.2,62.5,29.94,SW,229,9.0,12.0,82,0.00,,---,0.00,VWS V12.08,2013-06-16 01:03:00,
2013-06-15 21:06:00,68.1,62.4,29.94,SW,236,11.0,12.0,82,0.00,,---,0.00,VWS V12.08,2013-06-16 01:06:00,
2013-06-15 21:07:00,68.1,62.4,29.94,SW,234,10.0,12.0,82,0.00,,---,0.00,VWS V12.08,2013-06-16 01:07:00,
2013-06-15 21:08:00,68.1,62.8,29.94,SW,217,9.0,12.0,83,0.00,,---,0.00,VWS V12.08,2013-06-16 01:08:00,
2013-06-15 21:11:00,68.1,62.4,29.94,SW,223,10.0,10.0,82,0.00,,---,0.00,VWS V12.08,2013-06-16 01:11:00,
2013-06-15 21:12:00,68.1,62.8,29.94,SW,225,9.0,10.0,83,0.00,,---,0.00,VWS V12.08,2013-06-16 01:12:00,
2013-06-15 21:14:00,68.1,62.8,29.94,SW,217,7.0,10.0,83,0.00,,---,0.00,VWS V12.08,2013-06-16 01:14:00,
2013-06-15 21:16:00,68.0,62.7,29.94,SW,233,7.0,10.0,83,0.00,,---,0.00,VWS V12.08,2013-06-16 01:16:00,
2013-06-15 21:17:00,68.0,62.7,29.94,SW,227,5.0,10.0,83,0.00,,---,0.00,VWS V12.08,2013-06-16 01:17:00,
2013-06-15 21:19:00,68.0,62.7,29.94,SW,222,7.0,10.0,83,0.00,,---,0.00,VWS V12.08,2013-06-16 01:19:00,
2013-06-15 21:21:00,68.0,62.7,29.94,SW,227,5.0,7.0,83,0.00,,---,0.00,VWS V12.08,2013-06-16 01:21:00,
2013-06-15 21:22:00,68.0,62.7,29.94,SW,221,5.0,7.0,83,0.00,,---,0.00,VWS V12.08,2013-06-16 01:22:00,
2013-06-15 21:24:00,68.0,62.7,29.94,SW,233,6.0,7.0,83,0.00,,---,0.00,VWS V12.08,2013-06-16 01:24:00,
2013-06-15 21:26:00,67.9,62.5,29.95,SW,225,6.0,7.0,83,0.00,,---,0.00,VWS V12.08,2013-06-16 01:26:00,
2013-06-15 21:27:00,67.9,62.5,29.95,SW,225,5.0,7.0,83,0.00,,---,0.00,VWS V12.08,2013-06-16 01:27:00,
2013-06-15 21:29:00,67.9,62.5,29.95,SW,219,2.0,8.0,83,0.00,,---,0.00,VWS V12.08,2013-06-16 01:29:00,
2013-06-15 21:31:00,67.9,62.9,29.95,SW,215,5.0,5.0,84,0.00,,---,0.00,VWS V12.08,2013-06-16 01:31:00,
2013-06-15 21:32:00,67.8,62.8,29.95,SW,215,6.0,6.0,84,0.00,,---,0.00,VWS V12.08,2013-06-16 01:32:00,
2013-06-15 21:35:00,67.9,62.9,29.95,SW,218,5.0,8.0,84,0.00,,---,0.00,VWS V12.08,2013-06-16 01:35:00,
2013-06-15 21:36:00,67.9,62.9,29.95,SW,217,6.0,8.0,84,0.00,,---,0.00,VWS V12.08,2013-06-16 01:36:00,
2013-06-15 21:37:00,67.9,62.9,29.95,SW,217,4.0,8.0,84,0.00,,---,0.00,VWS V12.08,2013-06-16 01:37:00,
2013-06-15 21:40:00,67.8,62.8,29.95,SSW,207,5.0,8.0,84,0.00,,---,0.00,VWS V12.08,2013-06-16 01:40:00,
2013-06-15 21:42:00,67.8,63.1,29.95,SW,219,5.0,7.0,85,0.00,,---,0.00,VWS V12.08,2013-06-16 01:42:00,
2013-06-15 21:43:00,67.7,63.0,29.95,SW,223,6.0,8.0,85,0.00,,---,0.00,VWS V12.08,2013-06-16 01:43:00,
2013-06-15 21:45:00,67.6,62.9,29.95,SW,222,7.0,9.0,85,0.00,,---,0.00,VWS V12.08,2013-06-16 01:45:00,
2013-06-15 21:47:00,67.6,62.9,29.95,SW,221,6.0,10.0,85,0.00,,---,0.00,VWS V12.08,2013-06-16 01:47:00,
2013-06-15 21:48:00,67.5,62.8,29.95,SSW,211,7.0,10.0,85,0.00,,---,0.00,VWS V12.08,2013-06-16 01:48:00,
2013-06-15 21:50:00,67.4,63.1,29.96,SW,226,7.0,10.0,86,0.00,,---,0.00,VWS V12.08,2013-06-16 01:50:00,
2013-06-15 21:52:00,67.4,63.1,29.96,SW,226,6.0,9.0,86,0.00,,---,0.00,VWS V12.08,2013-06-16 01:52:00,
2013-06-15 21:53:00,67.4,63.1,29.96,WSW,243,6.0,9.0,86,0.00,,---,0.00,VWS V12.08,2013-06-16 01:53:00,
2013-06-15 21:55:00,67.3,63.0,29.96,SW,218,6.0,10.0,86,0.00,,---,0.00,VWS V12.08,2013-06-16 01:55:00,
2013-06-15 21:57:00,67.3,63.0,29.96,SW,216,7.0,10.0,86,0.00,,---,0.00,VWS V12.08,2013-06-16 01:57:00,
2013-06-15 21:58:00,67.3,63.0,29.96,SSW,211,7.0,10.0,86,0.00,,---,0.00,VWS V12.08,2013-06-16 01:58:00,
2013-06-15 22:00:00,67.3,63.3,29.96,SW,227,6.0,12.0,87,0.00,,---,0.00,VWS V12.08,2013-06-16 02:00:00,
2013-06-15 22:02:00,67.2,63.2,29.96,SW,234,5.0,9.0,87,0.00,,---,0.00,VWS V12.08,2013-06-16 02:02:00,
2013-06-15 22:03:00,67.2,63.2,29.96,SW,225,4.0,9.0,87,0.00,,---,0.00,VWS V12.08,2013-06-16 02:03:00,
2013-06-15 22:05:00,67.2,63.2,29.96,SW,223,5.0,9.0,87,0.00,,---,0.00,VWS V12.08,2013-06-16 02:05:00,
2013-06-15 22:07:00,67.2,63.2,29.96,SW,225,4.0,9.0,87,0.00,,---,0.00,VWS V12.08,2013-06-16 02:07:00,
2013-06-15 22:08:00,67.2,63.2,29.96,WSW,240,4.0,9.0,87,0.00,,---,0.00,VWS V12.08,2013-06-16 02:08:00,
2013-06-15 22:09:00,67.2,63.2,29.96,SW,234,6.0,9.0,87,0.00,,---,0.00,VWS V12.08,2013-06-16 02:09:00,
2013-06-15 22:11:00,67.1,63.1,29.96,SW,223,6.0,10.0,87,0.00,,---,0.00,VWS V12.08,2013-06-16 02:11:00,
2013-06-15 22:12:00,67.1,63.1,29.96,SW,225,6.0,9.0,87,0.00,,---,0.00,VWS V12.08,2013-06-16 02:12:00,
2013-06-15 22:13:00,67.1,63.1,29.96,SW,236,4.0,9.0,87,0.00,,---,0.00,VWS V12.08,2013-06-16 02:13:00,
2013-06-15 22:14:00,67.1,63.1,29.96,SW,229,6.0,9.0,87,0.00,,---,0.00,VWS V12.08,2013-06-16 02:14:00,
2013-06-15 22:16:00,67.0,63.0,29.96,SW,233,3.0,9.0,87,0.00,,---,0.00,VWS V12.08,2013-06-16 02:16:00,
2013-06-15 22:17:00,67.0,63.0,29.96,SW,233,4.0,9.0,87,0.00,,---,0.00,VWS V12.08,2013-06-16 02:17:00,
2013-06-15 22:18:00,67.0,63.0,29.96,SW,233,4.0,9.0,87,0.00,,---,0.00,VWS V12.08,2013-06-16 02:18:00,
2013-06-15 22:19:00,67.0,63.0,29.96,SW,233,5.0,9.0,87,0.00,,---,0.00,VWS V12.08,2013-06-16 02:19:00,
2013-06-15 22:22:00,66.9,62.9,29.96,SW,229,4.0,6.0,87,0.00,,---,0.00,VWS V12.08,2013-06-16 02:22:00,
2013-06-15 22:23:00,66.9,62.9,29.96,SW,229,4.0,6.0,87,0.00,,---,0.00,VWS V12.08,2013-06-16 02:23:00,
2013-06-15 22:24:00,66.9,62.9,29.96,SW,229,5.0,6.0,87,0.00,,---,0.00,VWS V12.08,2013-06-16 02:24:00,
2013-06-15 22:27:00,66.9,63.2,29.96,SW,225,6.0,6.0,88,0.00,,---,0.00,VWS V12.08,2013-06-16 02:27:00,
2013-06-15 22:28:00,66.9,63.2,29.96,SW,227,3.0,6.0,88,0.00,,---,0.00,VWS V12.08,2013-06-16 02:28:00,
2013-06-15 22:29:00,66.9,63.2,29.96,WSW,242,5.0,6.0,88,0.00,,---,0.00,VWS V12.08,2013-06-16 02:29:00,
2013-06-15 22:32:00,66.8,63.1,29.96,SW,230,5.0,7.0,88,0.00,,---,0.00,VWS V12.08,2013-06-16 02:32:00,
2013-06-15 22:34:00,66.8,63.1,29.96,SW,232,3.0,7.0,88,0.00,,---,0.00,VWS V12.08,2013-06-16 02:34:00,
2013-06-15 22:35:00,66.8,63.1,29.96,SW,226,5.0,7.0,88,0.00,,---,0.00,VWS V12.08,2013-06-16 02:35:00,
2013-06-15 22:37:00,66.7,63.0,29.96,WSW,246,3.0,7.0,88,0.00,,---,0.00,VWS V12.08,2013-06-16 02:37:00,
2013-06-15 22:39:00,66.7,63.0,29.96,WSW,245,4.0,7.0,88,0.00,,---,0.00,VWS V12.08,2013-06-16 02:39:00,
2013-06-15 22:40:00,66.7,63.0,29.96,WSW,245,3.0,7.0,88,0.00,,---,0.00,VWS V12.08,2013-06-16 02:40:00,
2013-06-15 22:42:00,66.7,63.0,29.96,WSW,244,3.0,6.0,88,0.00,,---,0.00,VWS V12.08,2013-06-16 02:42:00,
2013-06-15 22:44:00,66.7,63.0,29.96,WSW,244,3.0,6.0,88,0.00,,---,0.00,VWS V12.08,2013-06-16 02:44:00,
2013-06-15 22:45:00,66.8,63.1,29.96,WSW,249,5.0,7.0,88,0.00,,---,0.00,VWS V12.08,2013-06-16 02:45:00,
2013-06-15 22:47:00,66.8,63.1,29.96,SW,231,6.0,8.0,88,0.00,,---,0.00,VWS V12.08,2013-06-16 02:47:00,
2013-06-15 22:49:00,66.8,63.1,29.96,SW,231,2.0,8.0,88,0.00,,---,0.00,VWS V12.08,2013-06-16 02:49:00,
2013-06-15 22:51:00,66.9,63.2,29.96,SW,234,4.0,8.0,88,0.00,,---,0.00,VWS V12.08,2013-06-16 02:51:00,
2013-06-15 22:52:00,66.9,63.2,29.96,SW,232,2.0,6.0,88,0.00,,---,0.00,VWS V12.08,2013-06-16 02:52:00,
2013-06-15 22:53:00,66.9,63.2,29.96,SW,232,1.0,6.0,88,0.00,,---,0.00,VWS V12.08,2013-06-16 02:53:00,
2013-06-15 22:54:00,66.9,63.2,29.96,WSW,239,3.0,6.0,88,0.00,,---,0.00,VWS V12.08,2013-06-16 02:54:00,
2013-06-15 22:56:00,66.9,63.2,29.96,WSW,239,1.0,6.0,88,0.00,,---,0.00,VWS V12.08,2013-06-16 02:56:00,
2013-06-15 22:58:00,66.9,63.2,29.96,WSW,239,3.0,6.0,88,0.00,,---,0.00,VWS V12.08,2013-06-16 02:58:00,
2013-06-15 22:59:00,66.9,63.2,29.96,WSW,239,4.0,6.0,88,0.00,,---,0.00,VWS V12.08,2013-06-16 02:59:00,
2013-06-15 23:00:00,66.9,63.2,29.96,WSW,239,3.0,6.0,88,0.00,,---,0.00,VWS V12.08,2013-06-16 03:00:00,
2013-06-15 23:01:00,66.9,63.2,29.96,WSW,239,4.0,6.0,88,0.00,,---,0.00,VWS V12.08,2013-06-16 03:01:00,
2013-06-15 23:03:00,67.0,63.3,29.96,SW,235,4.0,7.0,88,0.00,,---,0.00,VWS V12.08,2013-06-16 03:03:00,
2013-06-15 23:04:00,67.0,63.3,29.96,SW,231,5.0,7.0,88,0.00,,---,0.00,VWS V12.08,2013-06-16 03:04:00,
2013-06-15 23:05:00,67.0,63.3,29.96,SW,231,5.0,7.0,88,0.00,,---,0.00,VWS V12.08,2013-06-16 03:05:00,
2013-06-15 23:06:00,66.9,63.2,29.96,SW,235,4.0,7.0,88,0.00,,---,0.00,VWS V12.08,2013-06-16 03:06:00,
2013-06-15 23:08:00,66.9,63.2,29.96,SW,236,5.0,7.0,88,0.00,,---,0.00,VWS V12.08,2013-06-16 03:08:00,
2013-06-15 23:09:00,66.8,63.1,29.96,SW,236,5.0,7.0,88,0.00,,---,0.00,VWS V12.08,2013-06-16 03:09:00,
2013-06-15 23:10:00,66.8,63.1,29.96,SW,236,3.0,7.0,88,0.00,,---,0.00,VWS V12.08,2013-06-16 03:10:00,
2013-06-15 23:12:00,66.8,63.1,29.96,WSW,242,5.0,6.0,88,0.00,,---,0.00,VWS V12.08,2013-06-16 03:12:00,
2013-06-15 23:13:00,66.8,63.1,29.96,WSW,242,4.0,7.0,88,0.00,,---,0.00,VWS V12.08,2013-06-16 03:13:00,
2013-06-15 23:14:00,66.8,63.1,29.96,WSW,242,4.0,7.0,88,0.00,,---,0.00,VWS V12.08,2013-06-16 03:14:00,
2013-06-15 23:15:00,66.8,63.1,29.96,WSW,242,3.0,7.0,88,0.00,,---,0.00,VWS V12.08,2013-06-16 03:15:00,
2013-06-15 23:17:00,66.7,63.0,29.96,WSW,242,5.0,7.0,88,0.00,,---,0.00,VWS V12.08,2013-06-16 03:17:00,
2013-06-15 23:18:00,66.7,63.0,29.96,WSW,242,3.0,7.0,88,0.00,,---,0.00,VWS V12.08,2013-06-16 03:18:00,
2013-06-15 23:19:00,66.7,63.0,29.96,WSW,242,5.0,7.0,88,0.00,,---,0.00,VWS V12.08,2013-06-16 03:19:00,
2013-06-15 23:20:00,66.7,63.0,29.96,WSW,242,4.0,7.0,88,0.00,,---,0.00,VWS V12.08,2013-06-16 03:20:00,
2013-06-15 23:22:00,66.7,63.0,29.96,WSW,252,4.0,5.0,88,0.00,,---,0.00,VWS V12.08,2013-06-16 03:22:00,
2013-06-15 23:23:00,66.7,63.0,29.96,WSW,252,3.0,5.0,88,0.00,,---,0.00,VWS V12.08,2013-06-16 03:23:00,
2013-06-15 23:24:00,66.7,63.0,29.96,WSW,252,5.0,5.0,88,0.00,,---,0.00,VWS V12.08,2013-06-16 03:24:00,
2013-06-15 23:25:00,66.7,63.0,29.96,WSW,251,4.0,6.0,88,0.00,,---,0.00,VWS V12.08,2013-06-16 03:25:00,
2013-06-15 23:27:00,66.7,63.4,29.96,WSW,246,4.0,7.0,89,0.00,,---,0.00,VWS V12.08,2013-06-16 03:27:00,
2013-06-15 23:28:00,66.8,63.5,29.96,WSW,246,5.0,7.0,89,0.00,,---,0.00,VWS V12.08,2013-06-16 03:28:00,
2013-06-15 23:29:00,66.8,63.5,29.96,WSW,244,4.0,7.0,89,0.00,,---,0.00,VWS V12.08,2013-06-16 03:29:00,
2013-06-15 23:30:00,66.8,63.5,29.96,WSW,251,4.0,7.0,89,0.00,,---,0.00,VWS V12.08,2013-06-16 03:30:00,
2013-06-15 23:32:00,66.8,63.5,29.96,WSW,249,4.0,6.0,89,0.00,,---,0.00,VWS V12.08,2013-06-16 03:32:00,
2013-06-15 23:33:00,66.8,63.5,29.96,WSW,240,7.0,7.0,89,0.00,,---,0.00,VWS V12.08,2013-06-16 03:33:00,
2013-06-15 23:34:00,66.8,63.5,29.96,WSW,241,4.0,7.0,89,0.00,,---,0.00,VWS V12.08,2013-06-16 03:34:00,
2013-06-15 23:35:00,66.8,63.5,29.96,WSW,245,5.0,7.0,89,0.00,,---,0.00,VWS V12.08,2013-06-16 03:35:00,
2013-06-15 23:37:00,66.8,63.5,29.96,WSW,245,6.0,7.0,89,0.00,,---,0.00,VWS V12.08,2013-06-16 03:37:00,
2013-06-15 23:39:00,66.8,63.5,29.96,WSW,248,4.0,7.0,89,0.00,,---,0.00,VWS V12.08,2013-06-16 03:39:00,
2013-06-15 23:40:00,66.8,63.5,29.97,WSW,250,5.0,7.0,89,0.00,,---,0.00,VWS V12.08,2013-06-16 03:40:00,
2013-06-15 23:43:00,66.8,63.5,29.97,WSW,252,4.0,7.0,89,0.00,,---,0.00,VWS V12.08,2013-06-16 03:43:00,
2013-06-15 23:44:00,66.9,63.6,29.96,WSW,253,6.0,7.0,89,0.00,,---,0.00,VWS V12.08,2013-06-16 03:44:00,
2013-06-15 23:45:00,66.9,63.6,29.96,WSW,252,5.0,7.0,89,0.00,,---,0.00,VWS V12.08,2013-06-16 03:45:00,
2013-06-15 23:48:00,66.8,63.5,29.96,WSW,249,4.0,7.0,89,0.00,,---,0.00,VWS V12.08,2013-06-16 03:48:00,
2013-06-15 23:49:00,66.9,63.6,29.96,WSW,252,6.0,7.0,89,0.00,,---,0.00,VWS V12.08,2013-06-16 03:49:00,
2013-06-15 23:50:00,66.9,63.6,29.96,WSW,248,7.0,7.0,89,0.00,,---,0.00,VWS V12.08,2013-06-16 03:50:00,
2013-06-15 23:53:00,66.9,63.6,29.96,WSW,249,5.0,7.0,89,0.00,,---,0.00,VWS V12.08,2013-06-16 03:53:00,
2013-06-15 23:54:00,66.9,63.6,29.96,WSW,252,4.0,7.0,89,0.00,,---,0.00,VWS V12.08,2013-06-16 03:54:00,
2013-06-15 23:55:00,66.9,63.6,29.96,WSW,252,6.0,7.0,89,0.00,,---,0.00,VWS V12.08,2013-06-16 03:55:00,
2013-06-15 23:58:00,66.9,63.6,29.96,WSW,252,2.0,7.0,89,0.00,,---,0.00,VWS V12.08,2013-06-16 03:58:00,
2013-06-15 23:59:00,66.9,63.6,29.96,WSW,244,3.0,7.0,89,0.00,,---,0.00,VWS V12.08,2013-06-16 03:59:00,